Time,TemperatureF,DewpointF,PressureIn,WindDirection,WindDirectionDegrees,WindSpeedMPH,WindSpeedGustMPH,Humidity,HourlyPrecipIn,Conditions,Clouds,dailyrainin,SoftwareType,DateUTC
2013-04-10 00:00:00,56.1,37.2,29.20,SSW,202,0.0,0.0,49,0.00,,---,0.00,VWS V13.01,2013-04-10 04:00:00,
2013-04-10 00:05:00,56.1,37.2,29.20,SSW,202,0.0,0.0,49,0.00,,---,0.00,VWS V13.01,2013-04-10 04:05:00,
2013-04-10 00:10:00,56.1,37.2,29.20,SSW,202,0.0,0.0,49,0.00,,---,0.00,VWS V13.01,2013-04-10 04:10:00,
2013-04-10 00:15:00,55.6,37.8,29.20,SSW,202,0.0,0.0,51,0.00,,---,0.00,VWS V13.01,2013-04-10 04:15:00,
2013-04-10 00:20:00,55.8,37.4,29.20,SSW,202,0.0,0.0,50,0.00,,---,0.00,VWS V13.01,2013-04-10 04:20:00,
2013-04-10 00:25:00,55.8,37.4,29.20,SSW,202,0.0,0.0,50,0.00,,---,0.00,VWS V13.01,2013-04-10 04:25:00,
2013-04-10 00:26:00,55.8,37.4,29.20,SSW,202,0.0,0.0,50,0.00,,---,0.00,VWS V13.01,2013-04-10 04:26:00,
2013-04-10 00:30:00,55.9,37.6,29.20,South,180,0.0,0.0,50,0.00,,---,0.00,VWS V13.01,2013-04-10 04:30:00,
2013-04-10 00:31:00,55.9,37.6,29.20,South,180,0.0,0.0,50,0.00,,---,0.00,VWS V13.01,2013-04-10 04:31:00,
2013-04-10 00:35:00,55.9,37.6,29.20,South,180,0.0,0.0,50,0.00,,---,0.00,VWS V13.01,2013-04-10 04:35:00,
2013-04-10 00:36:00,55.9,37.6,29.20,South,180,0.0,0.0,50,0.00,,---,0.00,VWS V13.01,2013-04-10 04:36:00,
2013-04-10 00:40:00,56.1,37.2,29.20,SW,225,0.0,0.0,49,0.00,,---,0.00,VWS V13.01,2013-04-10 04:40:00,
2013-04-10 00:41:00,56.1,37.2,29.20,SW,225,0.0,0.0,49,0.00,,---,0.00,VWS V13.01,2013-04-10 04:41:00,
2013-04-10 00:42:00,56.1,37.2,29.20,SW,225,0.0,0.0,49,0.00,,---,0.00,VWS V13.01,2013-04-10 04:42:00,
2013-04-10 00:45:00,56.1,37.2,29.20,WSW,248,0.0,0.0,49,0.00,,---,0.00,VWS V13.01,2013-04-10 04:45:00,
2013-04-10 00:47:00,56.1,37.2,29.20,SSE,158,0.0,0.0,49,0.00,,---,0.00,VWS V13.01,2013-04-10 04:47:00,
2013-04-10 00:51:00,56.3,37.4,29.20,SE,135,0.0,0.0,49,0.00,,---,0.00,VWS V13.01,2013-04-10 04:51:00,
2013-04-10 00:52:00,56.3,37.4,29.20,SE,135,0.0,0.0,49,0.00,,---,0.00,VWS V13.01,2013-04-10 04:52:00,
2013-04-10 00:56:00,56.1,37.2,29.20,SE,135,0.0,0.0,49,0.00,,---,0.00,VWS V13.01,2013-04-10 04:56:00,
2013-04-10 00:57:00,56.1,37.2,29.20,SW,225,0.0,0.0,49,0.00,,---,0.00,VWS V13.01,2013-04-10 04:57:00,
2013-04-10 01:01:00,56.1,37.2,29.20,SE,135,0.0,0.0,49,0.00,,---,0.00,VWS V13.01,2013-04-10 05:01:00,
2013-04-10 01:02:00,56.1,37.2,29.20,SE,135,0.0,0.0,49,0.00,,---,0.00,VWS V13.01,2013-04-10 05:02:00,
2013-04-10 01:07:00,55.9,37.1,29.20,South,180,0.0,0.0,49,0.00,,---,0.00,VWS V13.01,2013-04-10 05:07:00,
2013-04-10 01:12:00,56.1,37.2,29.20,SE,135,2.0,2.0,49,0.00,,---,0.00,VWS V13.01,2013-04-10 05:12:00,
2013-04-10 01:13:00,56.1,37.2,29.20,SE,135,2.0,2.0,49,0.00,,---,0.00,VWS V13.01,2013-04-10 05:13:00,
2013-04-10 01:18:00,56.3,37.4,29.20,South,180,0.0,0.0,49,0.00,,---,0.00,VWS V13.01,2013-04-10 05:18:00,
2013-04-10 01:23:00,56.3,37.4,29.20,SSE,158,0.0,0.0,49,0.00,,---,0.00,VWS V13.01,2013-04-10 05:23:00,
2013-04-10 01:28:00,56.3,37.4,29.17,SW,225,0.0,0.0,49,0.00,,---,0.00,VWS V13.01,2013-04-10 05:28:00,
2013-04-10 01:33:00,56.3,37.4,29.17,SSW,202,0.0,0.0,49,0.00,,---,0.00,VWS V13.01,2013-04-10 05:33:00,
2013-04-10 01:34:00,56.3,37.9,29.17,ESE,112,1.1,1.1,50,0.00,,---,0.00,VWS V13.01,2013-04-10 05:34:00,
2013-04-10 01:38:00,56.7,38.2,29.17,WSW,248,0.0,0.0,50,0.00,,---,0.00,VWS V13.01,2013-04-10 05:38:00,
2013-04-10 01:39:00,56.7,38.2,29.17,WSW,248,0.0,0.0,50,0.00,,---,0.00,VWS V13.01,2013-04-10 05:39:00,
2013-04-10 01:43:00,56.7,38.2,29.17,SSW,202,0.0,0.0,50,0.00,,---,0.00,VWS V13.01,2013-04-10 05:43:00,
2013-04-10 01:44:00,56.7,38.2,29.17,SE,135,0.0,0.0,50,0.00,,---,0.00,VWS V13.01,2013-04-10 05:44:00,
2013-04-10 01:48:00,56.7,38.2,29.17,West,270,2.0,2.7,50,0.00,,---,0.00,VWS V13.01,2013-04-10 05:48:00,
2013-04-10 01:49:00,56.7,38.2,29.17,West,270,2.0,2.7,50,0.00,,---,0.00,VWS V13.01,2013-04-10 05:49:00,
2013-04-10 01:50:00,56.7,38.2,29.17,NNE,22,0.0,2.0,50,0.00,,---,0.00,VWS V13.01,2013-04-10 05:50:00,
2013-04-10 01:53:00,56.7,38.2,29.17,WSW,248,2.5,2.5,50,0.00,,---,0.00,VWS V13.01,2013-04-10 05:53:00,
2013-04-10 01:54:00,56.7,38.2,29.17,West,270,2.9,2.9,50,0.00,,---,0.00,VWS V13.01,2013-04-10 05:54:00,
2013-04-10 01:55:00,56.7,38.2,29.17,WNW,292,2.9,2.9,50,0.00,,---,0.00,VWS V13.01,2013-04-10 05:55:00,
2013-04-10 01:58:00,56.7,38.2,29.17,SE,135,1.1,1.1,50,0.00,,---,0.00,VWS V13.01,2013-04-10 05:58:00,
2013-04-10 01:59:00,56.7,38.2,29.17,SE,135,0.0,0.0,50,0.00,,---,0.00,VWS V13.01,2013-04-10 05:59:00,
2013-04-10 02:00:00,56.7,38.2,29.17,SE,135,0.0,0.0,50,0.00,,---,0.00,VWS V13.01,2013-04-10 06:00:00,
2013-04-10 02:04:00,56.8,38.4,29.17,South,180,0.0,0.0,50,0.00,,---,0.00,VWS V13.01,2013-04-10 06:04:00,
2013-04-10 02:05:00,56.8,38.4,29.17,SSE,158,0.0,0.0,50,0.00,,---,0.00,VWS V13.01,2013-04-10 06:05:00,
2013-04-10 02:09:00,56.8,38.4,29.14,SSE,158,0.0,0.0,50,0.00,,---,0.00,VWS V13.01,2013-04-10 06:09:00,
2013-04-10 02:10:00,56.8,38.4,29.14,West,270,1.6,1.6,50,0.00,,---,0.00,VWS V13.01,2013-04-10 06:10:00,
2013-04-10 02:14:00,56.8,38.4,29.14,East,90,0.0,1.1,50,0.00,,---,0.00,VWS V13.01,2013-04-10 06:14:00,
2013-04-10 02:15:00,56.8,38.4,29.14,SSE,158,0.0,0.0,50,0.00,,---,0.00,VWS V13.01,2013-04-10 06:15:00,
2013-04-10 02:16:00,56.8,38.4,29.14,SSE,158,0.0,0.0,50,0.00,,---,0.00,VWS V13.01,2013-04-10 06:16:00,
2013-04-10 02:19:00,56.8,38.4,29.14,SE,135,0.0,0.0,50,0.00,,---,0.00,VWS V13.01,2013-04-10 06:19:00,
2013-04-10 02:20:00,56.8,38.4,29.14,SE,135,0.0,0.0,50,0.00,,---,0.00,VWS V13.01,2013-04-10 06:20:00,
2013-04-10 02:21:00,56.8,38.4,29.14,SE,135,0.0,0.0,50,0.00,,---,0.00,VWS V13.01,2013-04-10 06:21:00,
2013-04-10 02:24:00,56.8,38.4,29.14,SW,225,0.0,0.0,50,0.00,,---,0.00,VWS V13.01,2013-04-10 06:24:00,
2013-04-10 02:26:00,56.8,38.4,29.14,SW,225,0.0,0.0,50,0.00,,---,0.00,VWS V13.01,2013-04-10 06:26:00,
2013-04-10 02:29:00,56.8,38.4,29.12,South,180,0.0,0.0,50,0.00,,---,0.00,VWS V13.01,2013-04-10 06:29:00,
2013-04-10 02:30:00,55.9,38.6,29.12,South,180,0.0,0.0,52,0.00,,---,0.00,VWS V13.01,2013-04-10 06:30:00,
2013-04-10 02:31:00,55.9,38.6,29.12,South,180,0.0,0.0,52,0.00,,---,0.00,VWS V13.01,2013-04-10 06:31:00,
2013-04-10 02:34:00,55.9,38.6,29.12,South,180,0.0,0.0,52,0.00,,---,0.00,VWS V13.01,2013-04-10 06:34:00,
2013-04-10 02:35:00,55.9,38.6,29.12,South,180,0.0,0.0,52,0.00,,---,0.00,VWS V13.01,2013-04-10 06:35:00,
2013-04-10 02:36:00,55.9,38.6,29.12,South,180,0.0,0.0,52,0.00,,---,0.00,VWS V13.01,2013-04-10 06:36:00,
2013-04-10 02:37:00,55.9,38.6,29.12,South,180,0.0,0.0,52,0.00,,---,0.00,VWS V13.01,2013-04-10 06:37:00,
2013-04-10 02:39:00,55.9,38.6,29.12,South,180,0.0,0.0,52,0.00,,---,0.00,VWS V13.01,2013-04-10 06:39:00,
2013-04-10 02:40:00,55.9,38.6,29.12,South,180,0.0,0.0,52,0.00,,---,0.00,VWS V13.01,2013-04-10 06:40:00,
2013-04-10 02:42:00,55.8,38.4,29.12,South,180,0.0,0.0,52,0.00,,---,0.00,VWS V13.01,2013-04-10 06:42:00,
2013-04-10 02:45:00,55.8,38.4,29.12,South,180,0.0,0.0,52,0.00,,---,0.00,VWS V13.01,2013-04-10 06:45:00,
2013-04-10 02:47:00,55.8,38.4,29.12,South,180,0.0,0.0,52,0.00,,---,0.00,VWS V13.01,2013-04-10 06:47:00,
2013-04-10 02:50:00,55.8,38.4,29.12,South,180,0.0,0.0,52,0.00,,---,0.00,VWS V13.01,2013-04-10 06:50:00,
2013-04-10 02:52:00,55.8,38.4,29.12,NNW,338,0.0,0.0,52,0.00,,---,0.00,VWS V13.01,2013-04-10 06:52:00,
2013-04-10 02:55:00,55.9,39.5,29.14,NNE,22,0.9,3.1,54,0.00,,---,0.00,VWS V13.01,2013-04-10 06:55:00,
2013-04-10 02:57:00,56.8,38.9,29.14,ESE,112,2.7,2.7,51,0.00,,---,0.00,VWS V13.01,2013-04-10 06:57:00,
2013-04-10 03:00:00,56.8,38.9,29.14,NNW,338,2.5,4.0,51,0.00,,---,0.00,VWS V13.01,2013-04-10 07:00:00,
2013-04-10 03:02:00,56.8,38.9,29.14,North,0,4.3,4.3,51,0.00,,---,0.00,VWS V13.01,2013-04-10 07:02:00,
2013-04-10 03:03:00,56.8,38.9,29.14,NNW,338,3.4,4.3,51,0.00,,---,0.00,VWS V13.01,2013-04-10 07:03:00,
2013-04-10 03:05:00,56.8,38.9,29.14,East,90,0.0,0.0,51,0.00,,---,0.00,VWS V13.01,2013-04-10 07:05:00,
2013-04-10 03:07:00,56.8,38.9,29.14,NNW,338,1.1,1.1,51,0.00,,---,0.00,VWS V13.01,2013-04-10 07:07:00,
2013-04-10 03:08:00,56.8,38.9,29.14,WNW,292,2.2,2.2,51,0.00,,---,0.00,VWS V13.01,2013-04-10 07:08:00,
2013-04-10 03:10:00,56.8,38.9,29.14,West,270,0.9,2.0,51,0.00,,---,0.00,VWS V13.01,2013-04-10 07:10:00,
2013-04-10 03:11:00,56.8,38.9,29.14,NW,315,0.0,0.0,51,0.00,,---,0.00,VWS V13.01,2013-04-10 07:11:00,
2013-04-10 03:12:00,56.8,38.9,29.14,NNE,22,0.9,0.9,51,0.00,,---,0.00,VWS V13.01,2013-04-10 07:12:00,
2013-04-10 03:13:00,56.8,38.9,29.14,NNE,22,0.9,0.9,51,0.00,,---,0.00,VWS V13.01,2013-04-10 07:13:00,
2013-04-10 03:15:00,56.8,38.9,29.14,ENE,68,0.9,0.9,51,0.00,,---,0.00,VWS V13.01,2013-04-10 07:15:00,
2013-04-10 03:16:00,56.8,38.9,29.14,NW,315,1.1,2.0,51,0.00,,---,0.00,VWS V13.01,2013-04-10 07:16:00,
2013-04-10 03:17:00,56.8,38.9,29.14,West,270,0.0,1.1,51,0.00,,---,0.00,VWS V13.01,2013-04-10 07:17:00,
2013-04-10 03:18:00,56.8,38.9,29.14,WSW,248,0.0,0.0,51,0.00,,---,0.00,VWS V13.01,2013-04-10 07:18:00,
2013-04-10 03:20:00,54.5,41.8,29.14,East,90,1.1,1.1,62,0.00,,---,0.00,VWS V13.01,2013-04-10 07:20:00,
2013-04-10 03:22:00,54.5,41.8,29.14,SSE,158,0.0,0.0,62,0.00,,---,0.00,VWS V13.01,2013-04-10 07:22:00,
2013-04-10 03:23:00,54.1,41.8,29.14,SSE,158,0.0,0.0,63,0.00,,---,0.00,VWS V13.01,2013-04-10 07:23:00,
2013-04-10 03:25:00,54.1,41.8,29.14,West,270,0.0,2.5,63,0.00,,---,0.00,VWS V13.01,2013-04-10 07:25:00,
2013-04-10 03:27:00,54.1,41.8,29.14,West,270,1.1,1.1,63,0.00,,---,0.00,VWS V13.01,2013-04-10 07:27:00,
2013-04-10 03:28:00,54.1,41.8,29.14,West,270,1.1,1.1,63,0.00,,---,0.00,VWS V13.01,2013-04-10 07:28:00,
2013-04-10 03:31:00,53.4,42.0,29.14,NE,45,0.0,0.0,65,0.00,,---,0.00,VWS V13.01,2013-04-10 07:31:00,
2013-04-10 03:32:00,53.4,42.0,29.14,NE,45,0.0,0.0,65,0.00,,---,0.00,VWS V13.01,2013-04-10 07:32:00,
2013-04-10 03:33:00,53.4,42.0,29.14,SE,135,0.0,0.0,65,0.00,,---,0.00,VWS V13.01,2013-04-10 07:33:00,
2013-04-10 03:37:00,53.4,42.0,29.14,SW,225,0.0,0.0,65,0.00,,---,0.00,VWS V13.01,2013-04-10 07:37:00,
2013-04-10 03:38:00,53.4,42.0,29.14,NW,315,1.3,1.3,65,0.00,,---,0.00,VWS V13.01,2013-04-10 07:38:00,
2013-04-10 03:39:00,53.4,42.0,29.14,NW,315,2.0,2.0,65,0.00,,---,0.00,VWS V13.01,2013-04-10 07:39:00,
2013-04-10 03:42:00,53.4,42.0,29.14,WNW,292,0.0,0.9,65,0.00,,---,0.00,VWS V13.01,2013-04-10 07:42:00,
2013-04-10 03:43:00,53.4,42.0,29.14,NNW,338,0.0,0.0,65,0.00,,---,0.00,VWS V13.01,2013-04-10 07:43:00,
2013-04-10 03:44:00,53.4,42.0,29.14,East,90,0.0,0.0,65,0.00,,---,0.00,VWS V13.01,2013-04-10 07:44:00,
2013-04-10 03:47:00,52.2,41.9,29.20,North,0,0.0,0.0,68,0.00,,---,0.00,VWS V13.01,2013-04-10 07:47:00,
2013-04-10 03:48:00,52.2,41.9,29.20,North,0,2.9,2.9,68,0.00,,---,0.00,VWS V13.01,2013-04-10 07:48:00,
2013-04-10 03:49:00,52.2,41.9,29.20,North,0,2.9,2.9,68,0.00,,---,0.00,VWS V13.01,2013-04-10 07:49:00,
2013-04-10 03:52:00,52.2,41.9,29.20,West,270,0.9,2.9,68,0.00,,---,0.00,VWS V13.01,2013-04-10 07:52:00,
2013-04-10 03:53:00,52.2,41.9,29.20,WNW,292,1.6,1.6,68,0.00,,---,0.00,VWS V13.01,2013-04-10 07:53:00,
2013-04-10 03:54:00,52.2,41.9,29.20,NW,315,2.9,2.9,68,0.00,,---,0.00,VWS V13.01,2013-04-10 07:54:00,
2013-04-10 03:57:00,51.4,41.6,29.20,WSW,248,0.0,0.9,69,0.00,,---,0.00,VWS V13.01,2013-04-10 07:57:00,
2013-04-10 03:58:00,51.4,41.6,29.20,WSW,248,0.0,0.9,69,0.00,,---,0.00,VWS V13.01,2013-04-10 07:58:00,
2013-04-10 03:59:00,51.4,41.6,29.20,NW,315,0.0,0.0,69,0.00,,---,0.00,VWS V13.01,2013-04-10 07:59:00,
2013-04-10 04:02:00,51.4,41.6,29.20,West,270,0.0,0.0,69,0.00,,---,0.00,VWS V13.01,2013-04-10 08:02:00,
2013-04-10 04:03:00,51.4,41.6,29.20,NNE,22,0.0,0.0,69,0.00,,---,0.00,VWS V13.01,2013-04-10 08:03:00,
2013-04-10 04:04:00,51.4,41.6,29.20,East,90,0.0,0.0,69,0.00,,---,0.00,VWS V13.01,2013-04-10 08:04:00,
2013-04-10 04:08:00,51.4,41.6,29.20,NNW,338,0.0,0.0,69,0.00,,---,0.00,VWS V13.01,2013-04-10 08:08:00,
2013-04-10 04:09:00,51.4,41.6,29.20,NNW,338,0.0,0.0,69,0.00,,---,0.00,VWS V13.01,2013-04-10 08:09:00,
2013-04-10 04:13:00,51.1,42.0,29.20,NW,315,2.7,2.7,71,0.00,,---,0.00,VWS V13.01,2013-04-10 08:13:00,
2013-04-10 04:14:00,51.1,42.0,29.17,NE,45,0.0,0.0,71,0.00,,---,0.00,VWS V13.01,2013-04-10 08:14:00,
2013-04-10 04:15:00,51.1,42.0,29.17,WSW,248,0.0,0.0,71,0.00,,---,0.00,VWS V13.01,2013-04-10 08:15:00,
2013-04-10 04:18:00,51.1,41.7,29.17,SW,225,0.9,2.5,70,0.00,,---,0.00,VWS V13.01,2013-04-10 08:18:00,
2013-04-10 04:19:00,51.1,41.7,29.17,SW,225,0.0,0.9,70,0.00,,---,0.00,VWS V13.01,2013-04-10 08:19:00,
2013-04-10 04:20:00,51.1,42.0,29.17,SW,225,0.0,0.0,71,0.00,,---,0.00,VWS V13.01,2013-04-10 08:20:00,
2013-04-10 04:23:00,51.1,42.0,29.17,SW,225,0.0,0.0,71,0.00,,---,0.00,VWS V13.01,2013-04-10 08:23:00,
2013-04-10 04:24:00,51.1,42.0,29.17,SW,225,0.0,0.0,71,0.00,,---,0.00,VWS V13.01,2013-04-10 08:24:00,
2013-04-10 04:28:00,51.1,42.0,29.17,West,270,0.0,0.0,71,0.00,,---,0.00,VWS V13.01,2013-04-10 08:28:00,
2013-04-10 04:29:00,51.1,42.0,29.17,West,270,0.0,0.0,71,0.00,,---,0.00,VWS V13.01,2013-04-10 08:29:00,
2013-04-10 04:30:00,51.1,42.0,29.17,West,270,0.0,0.0,71,0.00,,---,0.00,VWS V13.01,2013-04-10 08:30:00,
2013-04-10 04:33:00,51.1,42.0,29.17,WSW,248,0.0,0.0,71,0.00,,---,0.00,VWS V13.01,2013-04-10 08:33:00,
2013-04-10 04:34:00,51.1,42.0,29.17,SSE,158,2.7,2.7,71,0.00,,---,0.00,VWS V13.01,2013-04-10 08:34:00,
2013-04-10 04:35:00,51.1,42.0,29.17,SW,225,0.0,2.7,71,0.00,,---,0.00,VWS V13.01,2013-04-10 08:35:00,
2013-04-10 04:38:00,50.9,41.8,29.17,NW,315,0.0,0.0,71,0.00,,---,0.00,VWS V13.01,2013-04-10 08:38:00,
2013-04-10 04:39:00,50.9,41.8,29.17,WSW,248,0.0,0.0,71,0.00,,---,0.00,VWS V13.01,2013-04-10 08:39:00,
2013-04-10 04:40:00,50.9,41.8,29.17,WSW,248,0.0,0.0,71,0.00,,---,0.00,VWS V13.01,2013-04-10 08:40:00,
2013-04-10 04:43:00,50.7,42.0,29.17,SSW,202,1.3,1.3,72,0.00,,---,0.00,VWS V13.01,2013-04-10 08:43:00,
2013-04-10 04:44:00,50.7,42.0,29.17,SSW,202,1.3,1.3,72,0.00,,---,0.00,VWS V13.01,2013-04-10 08:44:00,
2013-04-10 04:45:00,50.7,42.0,29.17,North,0,0.0,0.0,72,0.00,,---,0.00,VWS V13.01,2013-04-10 08:45:00,
2013-04-10 04:48:00,50.7,42.0,29.17,NW,315,0.0,0.0,72,0.00,,---,0.00,VWS V13.01,2013-04-10 08:48:00,
2013-04-10 04:49:00,50.7,42.0,29.17,NW,315,0.0,0.0,72,0.00,,---,0.00,VWS V13.01,2013-04-10 08:49:00,
2013-04-10 04:51:00,50.5,42.2,29.17,WSW,248,0.0,0.0,73,0.00,,---,0.00,VWS V13.01,2013-04-10 08:51:00,
2013-04-10 04:53:00,50.5,42.2,29.17,WSW,248,0.0,0.0,73,0.00,,---,0.00,VWS V13.01,2013-04-10 08:53:00,
2013-04-10 04:54:00,50.4,42.0,29.17,WSW,248,0.0,0.0,73,0.00,,---,0.00,VWS V13.01,2013-04-10 08:54:00,
2013-04-10 04:56:00,50.4,42.0,29.17,WSW,248,0.0,0.0,73,0.00,,---,0.00,VWS V13.01,2013-04-10 08:56:00,
2013-04-10 04:58:00,50.4,42.0,29.17,WSW,248,0.0,0.0,73,0.00,,---,0.00,VWS V13.01,2013-04-10 08:58:00,
2013-04-10 04:59:00,50.2,41.9,29.17,WSW,248,0.0,0.0,73,0.00,,---,0.00,VWS V13.01,2013-04-10 08:59:00,
2013-04-10 05:01:00,50.2,41.9,29.17,WSW,248,0.0,0.0,73,0.00,,---,0.00,VWS V13.01,2013-04-10 09:01:00,
2013-04-10 05:03:00,50.2,41.9,29.17,SW,225,0.0,0.0,73,0.00,,---,0.00,VWS V13.01,2013-04-10 09:03:00,
2013-04-10 05:04:00,50.2,41.9,29.17,SW,225,0.0,0.0,73,0.00,,---,0.00,VWS V13.01,2013-04-10 09:04:00,
2013-04-10 05:05:00,50.2,41.9,29.17,SW,225,0.0,0.0,73,0.00,,---,0.00,VWS V13.01,2013-04-10 09:05:00,
2013-04-10 05:07:00,50.2,41.9,29.17,SW,225,0.0,0.0,73,0.00,,---,0.00,VWS V13.01,2013-04-10 09:07:00,
2013-04-10 05:08:00,50.0,42.0,29.17,SW,225,0.0,0.0,74,0.00,,---,0.00,VWS V13.01,2013-04-10 09:08:00,
2013-04-10 05:09:00,50.0,42.0,29.17,SW,225,0.0,0.0,74,0.00,,---,0.00,VWS V13.01,2013-04-10 09:09:00,
2013-04-10 05:10:00,50.0,42.0,29.17,SW,225,0.0,0.0,74,0.00,,---,0.00,VWS V13.01,2013-04-10 09:10:00,
2013-04-10 05:12:00,50.0,42.0,29.17,NNE,22,0.0,0.0,74,0.00,,---,0.00,VWS V13.01,2013-04-10 09:12:00,
2013-04-10 05:14:00,50.0,42.0,29.17,ENE,68,0.0,0.0,74,0.00,,---,0.00,VWS V13.01,2013-04-10 09:14:00,
2013-04-10 05:15:00,50.0,42.0,29.17,ENE,68,0.0,0.0,74,0.00,,---,0.00,VWS V13.01,2013-04-10 09:15:00,
2013-04-10 05:17:00,50.0,42.0,29.17,ENE,68,0.0,0.0,74,0.00,,---,0.00,VWS V13.01,2013-04-10 09:17:00,
2013-04-10 05:19:00,50.0,42.0,29.17,ENE,68,0.0,0.0,74,0.00,,---,0.00,VWS V13.01,2013-04-10 09:19:00,
2013-04-10 05:20:00,50.0,42.4,29.17,ENE,68,0.0,0.0,75,0.00,,---,0.00,VWS V13.01,2013-04-10 09:20:00,
2013-04-10 05:22:00,50.0,42.4,29.17,ENE,68,0.0,0.0,75,0.00,,---,0.00,VWS V13.01,2013-04-10 09:22:00,
2013-04-10 05:24:00,49.8,42.2,29.17,ENE,68,0.0,0.0,75,0.00,,---,0.00,VWS V13.01,2013-04-10 09:24:00,
2013-04-10 05:25:00,49.8,42.2,29.17,ENE,68,0.0,0.0,75,0.00,,---,0.00,VWS V13.01,2013-04-10 09:25:00,
2013-04-10 05:27:00,49.8,42.2,29.17,ENE,68,0.0,0.0,75,0.00,,---,0.00,VWS V13.01,2013-04-10 09:27:00,
2013-04-10 05:29:00,49.8,42.2,29.17,ENE,68,0.0,0.0,75,0.00,,---,0.00,VWS V13.01,2013-04-10 09:29:00,
2013-04-10 05:30:00,49.8,42.2,29.17,ENE,68,0.0,0.0,75,0.00,,---,0.00,VWS V13.01,2013-04-10 09:30:00,
2013-04-10 05:31:00,49.8,42.2,29.17,ENE,68,0.0,0.0,75,0.00,,---,0.00,VWS V13.01,2013-04-10 09:31:00,
2013-04-10 05:32:00,49.8,42.2,29.17,East,90,0.0,0.0,75,0.00,,---,0.00,VWS V13.01,2013-04-10 09:32:00,
2013-04-10 05:34:00,49.8,42.6,29.17,ESE,112,0.0,0.0,76,0.00,,---,0.00,VWS V13.01,2013-04-10 09:34:00,
2013-04-10 05:35:00,49.8,42.6,29.17,ESE,112,0.0,0.0,76,0.00,,---,0.00,VWS V13.01,2013-04-10 09:35:00,
2013-04-10 05:36:00,49.8,42.6,29.17,ESE,112,0.0,0.0,76,0.00,,---,0.00,VWS V13.01,2013-04-10 09:36:00,
2013-04-10 05:37:00,49.8,42.6,29.17,ESE,112,0.0,0.0,76,0.00,,---,0.00,VWS V13.01,2013-04-10 09:37:00,
2013-04-10 05:39:00,49.8,42.6,29.17,ESE,112,0.0,0.0,76,0.00,,---,0.00,VWS V13.01,2013-04-10 09:39:00,
2013-04-10 05:40:00,49.8,42.6,29.17,ESE,112,0.0,0.0,76,0.00,,---,0.00,VWS V13.01,2013-04-10 09:40:00,
2013-04-10 05:41:00,49.8,42.6,29.17,ESE,112,0.0,0.0,76,0.00,,---,0.00,VWS V13.01,2013-04-10 09:41:00,
2013-04-10 05:43:00,49.8,42.6,29.17,ESE,112,0.0,0.0,76,0.00,,---,0.00,VWS V13.01,2013-04-10 09:43:00,
2013-04-10 05:44:00,49.8,42.6,29.17,ESE,112,0.0,0.0,76,0.00,,---,0.00,VWS V13.01,2013-04-10 09:44:00,
2013-04-10 05:45:00,49.8,42.6,29.17,SE,135,0.0,0.0,76,0.00,,---,0.00,VWS V13.01,2013-04-10 09:45:00,
2013-04-10 05:47:00,49.8,42.6,29.17,SE,135,0.0,0.0,76,0.00,,---,0.00,VWS V13.01,2013-04-10 09:47:00,
2013-04-10 05:48:00,49.8,42.6,29.17,SE,135,0.0,0.0,76,0.00,,---,0.00,VWS V13.01,2013-04-10 09:48:00,
2013-04-10 05:49:00,49.8,42.6,29.17,SE,135,0.0,0.0,76,0.00,,---,0.00,VWS V13.01,2013-04-10 09:49:00,
2013-04-10 05:50:00,49.8,42.6,29.17,West,270,0.0,0.0,76,0.00,,---,0.00,VWS V13.01,2013-04-10 09:50:00,
2013-04-10 05:52:00,49.8,42.6,29.20,NE,45,0.0,0.0,76,0.00,,---,0.00,VWS V13.01,2013-04-10 09:52:00,
2013-04-10 05:53:00,49.8,42.6,29.20,East,90,0.0,0.0,76,0.00,,---,0.00,VWS V13.01,2013-04-10 09:53:00,
2013-04-10 05:54:00,49.8,42.6,29.20,East,90,0.0,0.0,76,0.00,,---,0.00,VWS V13.01,2013-04-10 09:54:00,
2013-04-10 05:55:00,49.8,42.6,29.20,East,90,0.0,0.0,76,0.00,,---,0.00,VWS V13.01,2013-04-10 09:55:00,
2013-04-10 05:57:00,49.8,42.6,29.20,East,90,0.0,0.0,76,0.00,,---,0.00,VWS V13.01,2013-04-10 09:57:00,
2013-04-10 05:58:00,49.8,42.6,29.20,East,90,0.0,0.0,76,0.00,,---,0.00,VWS V13.01,2013-04-10 09:58:00,
2013-04-10 05:59:00,49.5,42.2,29.20,SE,135,0.0,0.0,76,0.00,,---,0.00,VWS V13.01,2013-04-10 09:59:00,
2013-04-10 06:00:00,49.5,42.2,29.20,SE,135,0.0,0.0,76,0.00,,---,0.00,VWS V13.01,2013-04-10 10:00:00,
2013-04-10 06:02:00,49.3,42.0,29.20,SE,135,0.0,0.0,76,0.00,,---,0.00,VWS V13.01,2013-04-10 10:02:00,
2013-04-10 06:04:00,49.3,42.0,29.20,East,90,0.0,0.0,76,0.00,,---,0.00,VWS V13.01,2013-04-10 10:04:00,
2013-04-10 06:05:00,49.3,42.0,29.20,East,90,0.0,0.0,76,0.00,,---,0.00,VWS V13.01,2013-04-10 10:05:00,
2013-04-10 06:07:00,49.3,42.0,29.20,East,90,0.0,0.0,76,0.00,,---,0.00,VWS V13.01,2013-04-10 10:07:00,
2013-04-10 06:09:00,49.3,42.0,29.20,East,90,0.0,0.0,76,0.00,,---,0.00,VWS V13.01,2013-04-10 10:09:00,
2013-04-10 06:10:00,49.3,42.0,29.20,East,90,0.0,0.0,76,0.00,,---,0.00,VWS V13.01,2013-04-10 10:10:00,
2013-04-10 06:12:00,49.3,42.0,29.20,East,90,0.0,0.0,76,0.00,,---,0.00,VWS V13.01,2013-04-10 10:12:00,
2013-04-10 06:14:00,49.1,42.2,29.20,SSE,158,0.0,0.0,77,0.00,,---,0.00,VWS V13.01,2013-04-10 10:14:00,
2013-04-10 06:15:00,49.1,42.2,29.20,SSE,158,0.0,0.0,77,0.00,,---,0.00,VWS V13.01,2013-04-10 10:15:00,
2013-04-10 06:17:00,48.9,42.0,29.20,SSE,158,0.0,0.0,77,0.00,,---,0.00,VWS V13.01,2013-04-10 10:17:00,
2013-04-10 06:19:00,48.9,42.0,29.20,SSE,158,0.0,0.0,77,0.00,,---,0.00,VWS V13.01,2013-04-10 10:19:00,
2013-04-10 06:20:00,48.9,42.0,29.20,SSE,158,0.0,0.0,77,0.00,,---,0.00,VWS V13.01,2013-04-10 10:20:00,
2013-04-10 06:22:00,48.9,42.0,29.20,SSE,158,2.0,2.0,77,0.00,,---,0.00,VWS V13.01,2013-04-10 10:22:00,
2013-04-10 06:24:00,48.9,42.0,29.20,SSE,158,0.9,0.9,77,0.00,,---,0.00,VWS V13.01,2013-04-10 10:24:00,
2013-04-10 06:25:00,48.9,42.0,29.20,SSE,158,0.0,0.0,77,0.00,,---,0.00,VWS V13.01,2013-04-10 10:25:00,
2013-04-10 06:27:00,48.9,42.0,29.20,SSE,158,0.0,0.0,77,0.00,,---,0.00,VWS V13.01,2013-04-10 10:27:00,
2013-04-10 06:29:00,48.9,42.0,29.20,SSE,158,0.0,0.0,77,0.00,,---,0.00,VWS V13.01,2013-04-10 10:29:00,
2013-04-10 06:30:00,48.9,42.0,29.20,SSE,158,0.0,0.0,77,0.00,,---,0.00,VWS V13.01,2013-04-10 10:30:00,
2013-04-10 06:31:00,48.9,42.0,29.20,SSE,158,0.0,0.0,77,0.00,,---,0.00,VWS V13.01,2013-04-10 10:31:00,
2013-04-10 06:33:00,48.9,42.0,29.20,SSE,158,0.0,0.0,77,0.00,,---,0.00,VWS V13.01,2013-04-10 10:33:00,
2013-04-10 06:35:00,48.9,42.0,29.20,SSE,158,0.0,0.0,77,0.00,,---,0.00,VWS V13.01,2013-04-10 10:35:00,
2013-04-10 06:36:00,48.7,42.2,29.20,SSE,158,0.0,0.0,78,0.00,,---,0.00,VWS V13.01,2013-04-10 10:36:00,
2013-04-10 06:38:00,48.7,42.2,29.20,SSE,158,0.0,0.0,78,0.00,,---,0.00,VWS V13.01,2013-04-10 10:38:00,
2013-04-10 06:40:00,48.7,42.2,29.20,SSE,158,0.0,0.0,78,0.00,,---,0.00,VWS V13.01,2013-04-10 10:40:00,
2013-04-10 06:41:00,48.7,42.2,29.20,SSE,158,0.0,0.0,78,0.00,,---,0.00,VWS V13.01,2013-04-10 10:41:00,
2013-04-10 06:42:00,48.7,42.2,29.20,SSE,158,0.0,0.0,78,0.00,,---,0.00,VWS V13.01,2013-04-10 10:42:00,
2013-04-10 06:43:00,48.7,42.2,29.20,SSE,158,0.0,0.0,78,0.00,,---,0.00,VWS V13.01,2013-04-10 10:43:00,
2013-04-10 06:45:00,48.7,42.2,29.20,SSE,158,0.0,0.0,78,0.00,,---,0.00,VWS V13.01,2013-04-10 10:45:00,
2013-04-10 06:46:00,48.7,42.2,29.20,SSE,158,0.0,0.0,78,0.00,,---,0.00,VWS V13.01,2013-04-10 10:46:00,
2013-04-10 06:47:00,48.7,42.2,29.20,SSE,158,0.0,0.0,78,0.00,,---,0.00,VWS V13.01,2013-04-10 10:47:00,
2013-04-10 06:48:00,48.7,42.2,29.20,SSE,158,0.0,0.0,78,0.00,,---,0.00,VWS V13.01,2013-04-10 10:48:00,
2013-04-10 06:50:00,48.7,42.2,29.20,SSE,158,0.0,0.0,78,0.00,,---,0.00,VWS V13.01,2013-04-10 10:50:00,
2013-04-10 06:51:00,48.7,42.2,29.20,SSE,158,0.0,0.0,78,0.00,,---,0.00,VWS V13.01,2013-04-10 10:51:00,
2013-04-10 06:52:00,48.6,42.0,29.20,SSE,158,0.0,0.0,78,0.00,,---,0.00,VWS V13.01,2013-04-10 10:52:00,
2013-04-10 06:53:00,48.6,42.0,29.20,SSE,158,0.0,0.0,78,0.00,,---,0.00,VWS V13.01,2013-04-10 10:53:00,
2013-04-10 06:55:00,48.6,42.0,29.20,SSE,158,0.0,0.0,78,0.00,,---,0.00,VWS V13.01,2013-04-10 10:55:00,
2013-04-10 06:56:00,48.6,42.0,29.20,SSE,158,0.0,0.0,78,0.00,,---,0.00,VWS V13.01,2013-04-10 10:56:00,
2013-04-10 06:58:00,48.6,42.0,29.20,SSE,158,0.0,0.0,78,0.00,,---,0.00,VWS V13.01,2013-04-10 10:58:00,
2013-04-10 07:00:00,48.6,42.3,29.20,SE,135,0.0,0.0,79,0.00,,---,0.00,VWS V13.01,2013-04-10 11:00:00,
2013-04-10 07:02:00,48.6,42.3,29.20,SE,135,0.0,0.0,79,0.00,,---,0.00,VWS V13.01,2013-04-10 11:02:00,
2013-04-10 07:03:00,48.6,42.3,29.20,ESE,112,0.0,0.0,79,0.00,,---,0.00,VWS V13.01,2013-04-10 11:03:00,
2013-04-10 07:04:00,48.6,42.3,29.20,ESE,112,0.0,0.0,79,0.00,,---,0.00,VWS V13.01,2013-04-10 11:04:00,
2013-04-10 07:05:00,48.6,42.3,29.20,ESE,112,0.0,0.0,79,0.00,,---,0.00,VWS V13.01,2013-04-10 11:05:00,
2013-04-10 07:07:00,48.6,42.3,29.20,ESE,112,0.0,0.0,79,0.00,,---,0.00,VWS V13.01,2013-04-10 11:07:00,
2013-04-10 07:08:00,48.6,42.3,29.20,ESE,112,0.0,0.0,79,0.00,,---,0.00,VWS V13.01,2013-04-10 11:08:00,
2013-04-10 07:09:00,48.6,42.3,29.20,ESE,112,0.0,0.0,79,0.00,,---,0.00,VWS V13.01,2013-04-10 11:09:00,
2013-04-10 07:10:00,48.6,42.3,29.20,ESE,112,0.0,0.0,79,0.00,,---,0.00,VWS V13.01,2013-04-10 11:10:00,
2013-04-10 07:12:00,48.6,42.3,29.20,ESE,112,0.0,0.0,79,0.00,,---,0.00,VWS V13.01,2013-04-10 11:12:00,
2013-04-10 07:13:00,48.6,42.3,29.20,ESE,112,0.0,0.0,79,0.00,,---,0.00,VWS V13.01,2013-04-10 11:13:00,
2013-04-10 07:14:00,48.6,42.3,29.20,ESE,112,0.0,0.0,79,0.00,,---,0.00,VWS V13.01,2013-04-10 11:14:00,
2013-04-10 07:15:00,48.6,42.3,29.20,SSW,202,0.0,0.0,79,0.00,,---,0.00,VWS V13.01,2013-04-10 11:15:00,
2013-04-10 07:17:00,48.6,42.3,29.20,SSW,202,0.0,0.0,79,0.00,,---,0.00,VWS V13.01,2013-04-10 11:17:00,
2013-04-10 07:18:00,49.1,43.2,29.20,East,90,0.9,0.9,80,0.00,,---,0.00,VWS V13.01,2013-04-10 11:18:00,
2013-04-10 07:19:00,49.1,43.2,29.20,East,90,0.9,0.9,80,0.00,,---,0.00,VWS V13.01,2013-04-10 11:19:00,
2013-04-10 07:20:00,49.1,43.2,29.20,East,90,0.0,0.0,80,0.00,,---,0.00,VWS V13.01,2013-04-10 11:20:00,
2013-04-10 07:22:00,49.1,42.9,29.23,ENE,68,0.0,0.0,79,0.00,,---,0.00,VWS V13.01,2013-04-10 11:22:00,
2013-04-10 07:23:00,49.1,42.9,29.23,ENE,68,0.0,0.0,79,0.00,,---,0.00,VWS V13.01,2013-04-10 11:23:00,
2013-04-10 07:24:00,49.1,42.9,29.23,ENE,68,0.0,0.0,79,0.00,,---,0.00,VWS V13.01,2013-04-10 11:24:00,
2013-04-10 07:25:00,49.1,42.9,29.23,ENE,68,0.0,0.0,79,0.00,,---,0.00,VWS V13.01,2013-04-10 11:25:00,
2013-04-10 07:27:00,49.1,42.9,29.23,ENE,68,0.0,0.0,79,0.00,,---,0.00,VWS V13.01,2013-04-10 11:27:00,
2013-04-10 07:29:00,49.1,42.9,29.23,West,270,0.0,0.0,79,0.00,,---,0.00,VWS V13.01,2013-04-10 11:29:00,
2013-04-10 07:30:00,49.5,43.6,29.23,West,270,0.0,0.0,80,0.00,,---,0.00,VWS V13.01,2013-04-10 11:30:00,
2013-04-10 07:32:00,49.5,43.6,29.23,SW,225,0.0,0.0,80,0.00,,---,0.00,VWS V13.01,2013-04-10 11:32:00,
2013-04-10 07:34:00,49.5,43.6,29.23,SW,225,0.0,0.0,80,0.00,,---,0.00,VWS V13.01,2013-04-10 11:34:00,
2013-04-10 07:35:00,49.5,43.6,29.23,SW,225,0.0,0.0,80,0.00,,---,0.00,VWS V13.01,2013-04-10 11:35:00,
2013-04-10 07:38:00,49.5,43.6,29.23,West,270,0.0,0.0,80,0.00,,---,0.00,VWS V13.01,2013-04-10 11:38:00,
2013-04-10 07:39:00,49.8,43.9,29.23,West,270,0.9,0.9,80,0.00,,---,0.00,VWS V13.01,2013-04-10 11:39:00,
2013-04-10 07:40:00,49.8,43.9,29.23,West,270,0.0,0.0,80,0.00,,---,0.00,VWS V13.01,2013-04-10 11:40:00,
2013-04-10 07:43:00,49.8,43.9,29.23,West,270,0.0,0.0,80,0.00,,---,0.00,VWS V13.01,2013-04-10 11:43:00,
2013-04-10 07:44:00,49.8,43.9,29.23,SE,135,0.0,0.0,80,0.00,,---,0.00,VWS V13.01,2013-04-10 11:44:00,
2013-04-10 07:45:00,49.8,43.9,29.23,SE,135,0.0,0.0,80,0.00,,---,0.00,VWS V13.01,2013-04-10 11:45:00,
2013-04-10 07:48:00,49.8,43.9,29.23,SE,135,0.0,0.0,80,0.00,,---,0.00,VWS V13.01,2013-04-10 11:48:00,
2013-04-10 07:49:00,50.2,43.9,29.23,SE,135,0.0,0.0,79,0.00,,---,0.00,VWS V13.01,2013-04-10 11:49:00,
2013-04-10 07:50:00,50.2,43.9,29.23,SE,135,0.0,0.0,79,0.00,,---,0.00,VWS V13.01,2013-04-10 11:50:00,
2013-04-10 07:51:00,50.2,43.9,29.23,SE,135,0.0,0.0,79,0.00,,---,0.00,VWS V13.01,2013-04-10 11:51:00,
2013-04-10 07:53:00,50.2,43.9,29.23,SSW,202,0.0,0.0,79,0.00,,---,0.00,VWS V13.01,2013-04-10 11:53:00,
2013-04-10 07:54:00,50.2,43.9,29.23,SSW,202,0.0,0.0,79,0.00,,---,0.00,VWS V13.01,2013-04-10 11:54:00,
2013-04-10 07:55:00,50.2,43.9,29.23,SSW,202,0.0,0.0,79,0.00,,---,0.00,VWS V13.01,2013-04-10 11:55:00,
2013-04-10 07:57:00,50.2,43.9,29.23,WSW,248,0.0,0.0,79,0.00,,---,0.00,VWS V13.01,2013-04-10 11:57:00,
2013-04-10 07:58:00,50.2,43.9,29.23,WSW,248,0.0,0.0,79,0.00,,---,0.00,VWS V13.01,2013-04-10 11:58:00,
2013-04-10 07:59:00,51.4,44.8,29.23,West,270,2.5,2.5,78,0.00,,---,0.00,VWS V13.01,2013-04-10 11:59:00,
2013-04-10 08:00:00,51.4,44.8,29.23,West,270,1.3,2.5,78,0.00,,---,0.00,VWS V13.01,2013-04-10 12:00:00,
2013-04-10 08:02:00,51.4,44.8,29.23,WSW,248,1.6,1.6,78,0.00,,---,0.00,VWS V13.01,2013-04-10 12:02:00,
2013-04-10 08:03:00,52.0,45.3,29.23,WSW,248,2.0,2.0,78,0.00,,---,0.00,VWS V13.01,2013-04-10 12:03:00,
2013-04-10 08:04:00,52.0,45.3,29.23,WSW,248,0.0,0.0,78,0.00,,---,0.00,VWS V13.01,2013-04-10 12:04:00,
2013-04-10 08:05:00,52.0,45.3,29.23,WSW,248,0.0,0.0,78,0.00,,---,0.00,VWS V13.01,2013-04-10 12:05:00,
2013-04-10 08:08:00,52.0,45.3,29.23,West,270,0.0,0.0,78,0.00,,---,0.00,VWS V13.01,2013-04-10 12:08:00,
2013-04-10 08:10:00,52.0,45.3,29.23,West,270,0.0,0.0,78,0.00,,---,0.00,VWS V13.01,2013-04-10 12:10:00,
2013-04-10 08:13:00,52.0,45.3,29.23,NNE,22,0.0,0.0,78,0.00,,---,0.00,VWS V13.01,2013-04-10 12:13:00,
2013-04-10 08:15:00,52.9,45.2,29.23,WSW,248,0.0,0.0,75,0.00,,---,0.00,VWS V13.01,2013-04-10 12:15:00,
2013-04-10 08:18:00,52.9,45.2,29.23,West,270,1.6,1.6,75,0.00,,---,0.00,VWS V13.01,2013-04-10 12:18:00,
2013-04-10 08:20:00,52.9,45.2,29.23,SW,225,0.0,0.0,75,0.00,,---,0.00,VWS V13.01,2013-04-10 12:20:00,
2013-04-10 08:23:00,52.9,45.2,29.26,West,270,0.0,0.0,75,0.00,,---,0.00,VWS V13.01,2013-04-10 12:23:00,
2013-04-10 08:25:00,52.9,45.2,29.26,North,0,0.0,0.0,75,0.00,,---,0.00,VWS V13.01,2013-04-10 12:25:00,
2013-04-10 08:28:00,52.9,45.2,29.26,NW,315,0.0,1.6,75,0.00,,---,0.00,VWS V13.01,2013-04-10 12:28:00,
2013-04-10 08:30:00,52.9,45.2,29.26,NNW,338,0.0,0.0,75,0.00,,---,0.00,VWS V13.01,2013-04-10 12:30:00,
2013-04-10 08:33:00,52.9,45.2,29.26,WNW,292,0.0,0.0,75,0.00,,---,0.00,VWS V13.01,2013-04-10 12:33:00,
2013-04-10 08:34:00,52.9,45.2,29.26,West,270,0.9,0.9,75,0.00,,---,0.00,VWS V13.01,2013-04-10 12:34:00,
2013-04-10 08:35:00,52.9,45.2,29.26,WNW,292,1.1,1.1,75,0.00,,---,0.00,VWS V13.01,2013-04-10 12:35:00,
2013-04-10 08:38:00,54.1,46.0,29.23,East,90,0.0,0.0,74,0.00,,---,0.00,VWS V13.01,2013-04-10 12:38:00,
2013-04-10 08:39:00,54.1,46.0,29.23,East,90,0.0,0.0,74,0.00,,---,0.00,VWS V13.01,2013-04-10 12:39:00,
2013-04-10 08:40:00,54.1,46.0,29.23,West,270,1.3,1.3,74,0.00,,---,0.00,VWS V13.01,2013-04-10 12:40:00,
2013-04-10 08:41:00,54.3,45.9,29.23,West,270,1.1,1.1,73,0.00,,---,0.00,VWS V13.01,2013-04-10 12:41:00,
2013-04-10 08:43:00,54.3,45.9,29.23,NNW,338,0.9,0.9,73,0.00,,---,0.00,VWS V13.01,2013-04-10 12:43:00,
2013-04-10 08:44:00,54.3,45.9,29.23,NNW,338,0.9,0.9,73,0.00,,---,0.00,VWS V13.01,2013-04-10 12:44:00,
2013-04-10 08:45:00,54.3,45.9,29.23,West,270,0.0,0.9,73,0.00,,---,0.00,VWS V13.01,2013-04-10 12:45:00,
2013-04-10 08:46:00,54.3,45.9,29.23,WSW,248,0.0,0.0,73,0.00,,---,0.00,VWS V13.01,2013-04-10 12:46:00,
2013-04-10 08:48:00,54.3,45.9,29.23,NNW,338,1.6,1.6,73,0.00,,---,0.00,VWS V13.01,2013-04-10 12:48:00,
2013-04-10 08:49:00,54.3,45.9,29.23,North,0,1.3,1.6,73,0.00,,---,0.00,VWS V13.01,2013-04-10 12:49:00,
2013-04-10 08:50:00,54.3,45.9,29.23,West,270,1.1,1.3,73,0.00,,---,0.00,VWS V13.01,2013-04-10 12:50:00,
2013-04-10 08:52:00,54.3,45.9,29.26,SW,225,0.0,1.6,73,0.00,,---,0.00,VWS V13.01,2013-04-10 12:52:00,
2013-04-10 08:54:00,54.3,45.9,29.26,WSW,248,0.0,0.0,73,0.00,,---,0.00,VWS V13.01,2013-04-10 12:54:00,
2013-04-10 08:55:00,54.3,45.9,29.26,North,0,0.0,0.0,73,0.00,,---,0.00,VWS V13.01,2013-04-10 12:55:00,
2013-04-10 08:57:00,54.3,45.9,29.26,West,270,0.0,0.0,73,0.00,,---,0.00,VWS V13.01,2013-04-10 12:57:00,
2013-04-10 08:59:00,54.3,45.9,29.26,North,0,0.0,2.0,73,0.00,,---,0.00,VWS V13.01,2013-04-10 12:59:00,
2013-04-10 09:00:00,54.3,45.9,29.26,ENE,68,0.0,0.0,73,0.00,,---,0.00,VWS V13.01,2013-04-10 13:00:00,
2013-04-10 09:02:00,54.3,45.9,29.26,WSW,248,0.0,0.0,73,0.00,,---,0.00,VWS V13.01,2013-04-10 13:02:00,
2013-04-10 09:04:00,55.6,46.7,29.26,West,270,1.1,1.1,72,0.00,,---,0.00,VWS V13.01,2013-04-10 13:04:00,
2013-04-10 09:05:00,55.6,46.7,29.26,ENE,68,0.9,0.9,72,0.00,,---,0.00,VWS V13.01,2013-04-10 13:05:00,
2013-04-10 09:07:00,55.6,46.7,29.26,ENE,68,0.0,0.9,72,0.00,,---,0.00,VWS V13.01,2013-04-10 13:07:00,
2013-04-10 09:09:00,55.9,46.7,29.26,ENE,68,0.0,2.2,71,0.00,,---,0.00,VWS V13.01,2013-04-10 13:09:00,
2013-04-10 09:10:00,55.9,46.7,29.26,SW,225,0.0,0.0,71,0.00,,---,0.00,VWS V13.01,2013-04-10 13:10:00,
2013-04-10 09:12:00,55.9,46.7,29.26,WSW,248,0.0,0.0,71,0.00,,---,0.00,VWS V13.01,2013-04-10 13:12:00,
2013-04-10 09:14:00,55.9,46.7,29.26,WSW,248,0.0,0.0,71,0.00,,---,0.00,VWS V13.01,2013-04-10 13:14:00,
2013-04-10 09:15:00,55.9,46.7,29.26,West,270,0.0,0.0,71,0.00,,---,0.00,VWS V13.01,2013-04-10 13:15:00,
2013-04-10 09:17:00,55.9,46.7,29.26,West,270,0.0,0.0,71,0.00,,---,0.00,VWS V13.01,2013-04-10 13:17:00,
2013-04-10 09:19:00,55.9,46.7,29.26,NNE,22,2.7,2.7,71,0.00,,---,0.00,VWS V13.01,2013-04-10 13:19:00,
2013-04-10 09:20:00,55.9,46.7,29.26,ENE,68,1.6,2.7,71,0.00,,---,0.00,VWS V13.01,2013-04-10 13:20:00,
2013-04-10 09:22:00,55.9,46.7,29.23,West,270,0.0,0.0,71,0.00,,---,0.00,VWS V13.01,2013-04-10 13:22:00,
2013-04-10 09:24:00,55.9,46.7,29.23,East,90,0.0,1.6,71,0.00,,---,0.00,VWS V13.01,2013-04-10 13:24:00,
2013-04-10 09:25:00,55.9,46.7,29.23,NE,45,0.0,0.0,71,0.00,,---,0.00,VWS V13.01,2013-04-10 13:25:00,
2013-04-10 09:28:00,55.9,46.7,29.23,ENE,68,1.1,2.5,71,0.00,,---,0.00,VWS V13.01,2013-04-10 13:28:00,
2013-04-10 09:29:00,55.9,46.7,29.23,East,90,1.1,1.1,71,0.00,,---,0.00,VWS V13.01,2013-04-10 13:29:00,
2013-04-10 09:30:00,55.9,46.7,29.23,East,90,1.1,1.1,71,0.00,,---,0.00,VWS V13.01,2013-04-10 13:30:00,
2013-04-10 09:33:00,57.0,47.0,29.23,West,270,0.0,0.9,69,0.00,,---,0.00,VWS V13.01,2013-04-10 13:33:00,
2013-04-10 09:35:00,57.0,47.0,29.23,NE,45,1.1,1.1,69,0.00,,---,0.00,VWS V13.01,2013-04-10 13:35:00,
2013-04-10 09:38:00,57.0,47.0,29.23,WSW,248,0.0,0.0,69,0.00,,---,0.00,VWS V13.01,2013-04-10 13:38:00,
2013-04-10 09:40:00,57.0,47.0,29.23,SSW,202,0.0,0.0,69,0.00,,---,0.00,VWS V13.01,2013-04-10 13:40:00,
2013-04-10 09:41:00,57.0,47.0,29.23,SSW,202,0.0,0.0,69,0.00,,---,0.00,VWS V13.01,2013-04-10 13:41:00,
2013-04-10 09:43:00,57.0,47.0,29.23,ESE,112,2.2,2.2,69,0.00,,---,0.00,VWS V13.01,2013-04-10 13:43:00,
2013-04-10 09:45:00,57.0,47.0,29.23,East,90,1.1,2.2,69,0.00,,---,0.00,VWS V13.01,2013-04-10 13:45:00,
2013-04-10 09:46:00,57.9,47.4,29.23,SW,225,0.0,1.1,68,0.00,,---,0.00,VWS V13.01,2013-04-10 13:46:00,
2013-04-10 09:48:00,57.9,47.4,29.23,WSW,248,2.5,2.5,68,0.00,,---,0.00,VWS V13.01,2013-04-10 13:48:00,
2013-04-10 09:50:00,58.3,48.2,29.23,WSW,248,0.0,0.9,69,0.00,,---,0.00,VWS V13.01,2013-04-10 13:50:00,
2013-04-10 09:51:00,58.3,48.2,29.23,SW,225,0.0,0.0,69,0.00,,---,0.00,VWS V13.01,2013-04-10 13:51:00,
2013-04-10 09:53:00,58.3,48.2,29.23,WNW,292,0.0,0.0,69,0.00,,---,0.00,VWS V13.01,2013-04-10 13:53:00,
2013-04-10 09:55:00,58.3,48.2,29.23,SW,225,1.6,2.5,69,0.00,,---,0.00,VWS V13.01,2013-04-10 13:55:00,
2013-04-10 09:56:00,58.3,48.2,29.23,SW,225,0.0,1.6,69,0.00,,---,0.00,VWS V13.01,2013-04-10 13:56:00,
2013-04-10 09:58:00,58.3,48.2,29.23,WNW,292,2.7,2.7,69,0.00,,---,0.00,VWS V13.01,2013-04-10 13:58:00,
2013-04-10 10:00:00,58.3,48.2,29.23,West,270,2.7,2.9,69,0.00,,---,0.00,VWS V13.01,2013-04-10 14:00:00,
2013-04-10 10:01:00,58.3,48.2,29.23,NW,315,0.0,2.7,69,0.00,,---,0.00,VWS V13.01,2013-04-10 14:01:00,
2013-04-10 10:03:00,58.3,48.2,29.23,West,270,0.0,0.0,69,0.00,,---,0.00,VWS V13.01,2013-04-10 14:03:00,
2013-04-10 10:05:00,59.5,48.2,29.23,East,90,0.9,1.3,66,0.00,,---,0.00,VWS V13.01,2013-04-10 14:05:00,
2013-04-10 10:06:00,59.5,48.2,29.23,West,270,0.0,0.9,66,0.00,,---,0.00,VWS V13.01,2013-04-10 14:06:00,
2013-04-10 10:08:00,59.5,48.2,29.23,WSW,248,2.5,2.5,66,0.00,,---,0.00,VWS V13.01,2013-04-10 14:08:00,
2013-04-10 10:10:00,59.5,48.2,29.23,West,270,0.0,0.0,66,0.00,,---,0.00,VWS V13.01,2013-04-10 14:10:00,
2013-04-10 10:11:00,59.5,48.2,29.23,West,270,0.0,0.0,66,0.00,,---,0.00,VWS V13.01,2013-04-10 14:11:00,
2013-04-10 10:12:00,60.3,48.9,29.23,West,270,2.9,2.9,66,0.00,,---,0.00,VWS V13.01,2013-04-10 14:12:00,
2013-04-10 10:13:00,60.3,48.9,29.23,WSW,248,0.0,2.9,66,0.00,,---,0.00,VWS V13.01,2013-04-10 14:13:00,
2013-04-10 10:15:00,60.3,48.9,29.23,WSW,248,1.3,1.3,66,0.00,,---,0.00,VWS V13.01,2013-04-10 14:15:00,
2013-04-10 10:16:00,60.3,48.9,29.23,WSW,248,2.5,2.5,66,0.00,,---,0.00,VWS V13.01,2013-04-10 14:16:00,
2013-04-10 10:17:00,60.3,48.9,29.23,West,270,2.0,2.0,66,0.00,,---,0.00,VWS V13.01,2013-04-10 14:17:00,
2013-04-10 10:18:00,60.3,48.9,29.23,WSW,248,1.3,4.9,66,0.00,,---,0.00,VWS V13.01,2013-04-10 14:18:00,
2013-04-10 10:20:00,60.3,48.9,29.23,WNW,292,0.0,0.0,66,0.00,,---,0.00,VWS V13.01,2013-04-10 14:20:00,
2013-04-10 10:21:00,60.3,48.9,29.23,East,90,1.6,1.6,66,0.00,,---,0.00,VWS V13.01,2013-04-10 14:21:00,
2013-04-10 10:22:00,60.3,48.9,29.23,WSW,248,1.1,1.6,66,0.00,,---,0.00,VWS V13.01,2013-04-10 14:22:00,
2013-04-10 10:23:00,60.3,48.9,29.23,WSW,248,2.5,2.5,66,0.00,,---,0.00,VWS V13.01,2013-04-10 14:23:00,
2013-04-10 10:25:00,60.3,48.9,29.23,WSW,248,0.0,1.3,66,0.00,,---,0.00,VWS V13.01,2013-04-10 14:25:00,
2013-04-10 10:27:00,60.3,48.9,29.23,WSW,248,0.9,0.9,66,0.00,,---,0.00,VWS V13.01,2013-04-10 14:27:00,
2013-04-10 10:29:00,60.3,48.9,29.23,WSW,248,2.9,2.9,66,0.00,,---,0.00,VWS V13.01,2013-04-10 14:29:00,
2013-04-10 10:30:00,61.2,49.7,29.23,WSW,248,1.6,2.5,66,0.00,,---,0.00,VWS V13.01,2013-04-10 14:30:00,
2013-04-10 10:32:00,61.2,49.7,29.23,WSW,248,1.6,1.6,66,0.00,,---,0.00,VWS V13.01,2013-04-10 14:32:00,
2013-04-10 10:33:00,61.2,49.7,29.23,WNW,292,2.5,2.5,66,0.00,,---,0.00,VWS V13.01,2013-04-10 14:33:00,
2013-04-10 10:35:00,61.2,49.7,29.23,SW,225,0.0,1.3,66,0.00,,---,0.00,VWS V13.01,2013-04-10 14:35:00,
2013-04-10 10:37:00,61.2,49.7,29.23,WSW,248,2.0,2.0,66,0.00,,---,0.00,VWS V13.01,2013-04-10 14:37:00,
2013-04-10 10:38:00,61.7,50.6,29.23,West,270,2.5,2.9,67,0.00,,---,0.00,VWS V13.01,2013-04-10 14:38:00,
2013-04-10 10:41:00,61.7,50.6,29.23,West,270,2.0,2.5,67,0.00,,---,0.00,VWS V13.01,2013-04-10 14:41:00,
2013-04-10 10:42:00,61.5,50.1,29.23,SW,225,0.0,1.1,66,0.00,,---,0.00,VWS V13.01,2013-04-10 14:42:00,
2013-04-10 10:43:00,61.5,50.1,29.23,SW,225,0.0,1.1,66,0.00,,---,0.00,VWS V13.01,2013-04-10 14:43:00,
2013-04-10 10:46:00,61.5,50.1,29.23,NE,45,0.9,1.6,66,0.00,,---,0.00,VWS V13.01,2013-04-10 14:46:00,
2013-04-10 10:47:00,61.5,50.1,29.23,NNE,22,2.9,2.9,66,0.00,,---,0.00,VWS V13.01,2013-04-10 14:47:00,
2013-04-10 10:48:00,61.5,50.1,29.23,SW,225,3.4,3.4,66,0.00,,---,0.00,VWS V13.01,2013-04-10 14:48:00,
2013-04-10 10:49:00,61.5,50.1,29.23,SW,225,3.4,3.4,66,0.00,,---,0.00,VWS V13.01,2013-04-10 14:49:00,
2013-04-10 10:51:00,61.5,50.1,29.23,SW,225,2.5,2.5,66,0.00,,---,0.00,VWS V13.01,2013-04-10 14:51:00,
2013-04-10 10:52:00,61.5,50.1,29.23,SSW,202,2.0,2.5,66,0.00,,---,0.00,VWS V13.01,2013-04-10 14:52:00,
2013-04-10 10:53:00,61.5,50.1,29.23,SSW,202,2.0,2.5,66,0.00,,---,0.00,VWS V13.01,2013-04-10 14:53:00,
2013-04-10 10:54:00,61.5,50.1,29.23,WNW,292,2.7,2.7,66,0.00,,---,0.00,VWS V13.01,2013-04-10 14:54:00,
2013-04-10 10:57:00,61.5,50.1,29.23,NNE,22,2.5,2.5,66,0.00,,---,0.00,VWS V13.01,2013-04-10 14:57:00,
2013-04-10 10:58:00,61.5,50.1,29.23,SSW,202,1.1,2.5,66,0.00,,---,0.00,VWS V13.01,2013-04-10 14:58:00,
2013-04-10 10:59:00,62.2,50.3,29.23,WSW,248,0.9,2.5,65,0.00,,---,0.00,VWS V13.01,2013-04-10 14:59:00,
2013-04-10 11:02:00,62.2,50.3,29.23,SSW,202,3.8,3.8,65,0.00,,---,0.00,VWS V13.01,2013-04-10 15:02:00,
2013-04-10 11:03:00,62.2,50.3,29.23,East,90,0.0,3.8,65,0.00,,---,0.00,VWS V13.01,2013-04-10 15:03:00,
2013-04-10 11:04:00,62.2,50.3,29.23,North,0,2.9,2.9,65,0.00,,---,0.00,VWS V13.01,2013-04-10 15:04:00,
2013-04-10 11:07:00,62.2,50.3,29.23,North,0,2.9,2.9,65,0.00,,---,0.00,VWS V13.01,2013-04-10 15:07:00,
2013-04-10 11:08:00,62.2,50.3,29.23,East,90,0.0,2.9,65,0.00,,---,0.00,VWS V13.01,2013-04-10 15:08:00,
2013-04-10 11:09:00,62.2,50.3,29.23,NNE,22,1.1,1.1,65,0.00,,---,0.00,VWS V13.01,2013-04-10 15:09:00,
2013-04-10 11:12:00,62.2,50.3,29.23,NW,315,0.0,2.7,65,0.00,,---,0.00,VWS V13.01,2013-04-10 15:12:00,
2013-04-10 11:13:00,62.2,50.3,29.23,NW,315,0.0,2.7,65,0.00,,---,0.00,VWS V13.01,2013-04-10 15:13:00,
2013-04-10 11:14:00,62.2,50.3,29.23,NW,315,0.0,0.0,65,0.00,,---,0.00,VWS V13.01,2013-04-10 15:14:00,
2013-04-10 11:17:00,63.1,50.8,29.23,SW,225,0.0,4.3,64,0.00,,---,0.00,VWS V13.01,2013-04-10 15:17:00,
2013-04-10 11:18:00,63.1,50.8,29.23,SW,225,0.0,4.3,64,0.00,,---,0.00,VWS V13.01,2013-04-10 15:18:00,
2013-04-10 11:19:00,63.1,50.8,29.23,South,180,2.5,3.4,64,0.00,,---,0.00,VWS V13.01,2013-04-10 15:19:00,
2013-04-10 11:22:00,63.7,51.3,29.26,West,270,2.9,2.9,64,0.00,,---,0.00,VWS V13.01,2013-04-10 15:22:00,
2013-04-10 11:23:00,63.7,51.3,29.26,West,270,2.9,2.9,64,0.00,,---,0.00,VWS V13.01,2013-04-10 15:23:00,
2013-04-10 11:24:00,63.1,50.8,29.26,WSW,248,1.6,3.4,64,0.00,,---,0.00,VWS V13.01,2013-04-10 15:24:00,
2013-04-10 11:27:00,63.1,50.8,29.26,SW,225,1.1,3.1,64,0.00,,---,0.00,VWS V13.01,2013-04-10 15:27:00,
2013-04-10 11:28:00,63.1,50.8,29.26,WSW,248,0.0,1.1,64,0.00,,---,0.00,VWS V13.01,2013-04-10 15:28:00,
2013-04-10 11:30:00,63.1,50.8,29.26,West,270,3.6,3.6,64,0.00,,---,0.00,VWS V13.01,2013-04-10 15:30:00,
2013-04-10 11:32:00,63.1,50.8,29.26,ENE,68,2.0,2.0,64,0.00,,---,0.00,VWS V13.01,2013-04-10 15:32:00,
2013-04-10 11:33:00,63.1,50.8,29.26,ENE,68,2.0,2.0,64,0.00,,---,0.00,VWS V13.01,2013-04-10 15:33:00,
2013-04-10 11:35:00,63.1,50.8,29.26,ENE,68,0.0,0.0,64,0.00,,---,0.00,VWS V13.01,2013-04-10 15:35:00,
2013-04-10 11:37:00,64.2,50.9,29.26,WSW,248,2.0,2.7,62,0.00,,---,0.00,VWS V13.01,2013-04-10 15:37:00,
2013-04-10 11:38:00,64.2,50.9,29.26,WSW,248,2.9,2.9,62,0.00,,---,0.00,VWS V13.01,2013-04-10 15:38:00,
2013-04-10 11:40:00,64.2,50.9,29.26,WNW,292,2.5,2.9,62,0.00,,---,0.00,VWS V13.01,2013-04-10 15:40:00,
2013-04-10 11:42:00,64.2,50.9,29.26,SW,225,0.0,0.0,62,0.00,,---,0.00,VWS V13.01,2013-04-10 15:42:00,
2013-04-10 11:44:00,64.2,50.9,29.26,West,270,0.0,0.0,62,0.00,,---,0.00,VWS V13.01,2013-04-10 15:44:00,
2013-04-10 11:45:00,64.2,50.9,29.26,West,270,2.0,2.0,62,0.00,,---,0.00,VWS V13.01,2013-04-10 15:45:00,
2013-04-10 11:47:00,64.2,50.9,29.26,WSW,248,2.0,2.5,62,0.00,,---,0.00,VWS V13.01,2013-04-10 15:47:00,
2013-04-10 11:49:00,64.2,50.9,29.26,WNW,292,2.0,2.0,62,0.00,,---,0.00,VWS V13.01,2013-04-10 15:49:00,
2013-04-10 11:50:00,64.2,50.9,29.26,South,180,1.1,2.0,62,0.00,,---,0.00,VWS V13.01,2013-04-10 15:50:00,
2013-04-10 11:52:00,64.2,50.9,29.26,NW,315,0.9,0.9,62,0.00,,---,0.00,VWS V13.01,2013-04-10 15:52:00,
2013-04-10 11:54:00,64.2,50.9,29.26,WSW,248,1.1,1.1,62,0.00,,---,0.00,VWS V13.01,2013-04-10 15:54:00,
2013-04-10 11:55:00,62.4,49.7,29.26,WNW,292,1.3,1.3,63,0.00,,---,0.00,VWS V13.01,2013-04-10 15:55:00,
2013-04-10 11:57:00,62.4,49.7,29.26,SW,225,2.2,2.2,63,0.00,,---,0.00,VWS V13.01,2013-04-10 15:57:00,
2013-04-10 11:59:00,62.2,49.5,29.26,SW,225,0.0,2.2,63,0.00,,---,0.00,VWS V13.01,2013-04-10 15:59:00,
2013-04-10 12:00:00,62.2,49.5,29.26,SW,225,1.3,2.5,63,0.00,,---,0.00,VWS V13.01,2013-04-10 16:00:00,
2013-04-10 12:02:00,62.2,49.5,29.26,WSW,248,0.0,0.0,63,0.00,,---,0.00,VWS V13.01,2013-04-10 16:02:00,
2013-04-10 12:04:00,62.2,49.5,29.26,WSW,248,3.8,3.8,63,0.00,,---,0.00,VWS V13.01,2013-04-10 16:04:00,
2013-04-10 12:05:00,62.2,49.5,29.26,WSW,248,1.6,1.6,63,0.00,,---,0.00,VWS V13.01,2013-04-10 16:05:00,
2013-04-10 12:07:00,62.2,49.5,29.26,WSW,248,1.3,1.3,63,0.00,,---,0.00,VWS V13.01,2013-04-10 16:07:00,
2013-04-10 12:09:00,62.2,49.5,29.26,SW,225,1.1,3.1,63,0.00,,---,0.00,VWS V13.01,2013-04-10 16:09:00,
2013-04-10 12:10:00,62.2,49.5,29.26,WSW,248,1.3,1.3,63,0.00,,---,0.00,VWS V13.01,2013-04-10 16:10:00,
2013-04-10 12:13:00,62.2,49.5,29.26,WSW,248,1.3,1.3,63,0.00,,---,0.00,VWS V13.01,2013-04-10 16:13:00,
2013-04-10 12:14:00,62.2,49.9,29.26,North,0,2.0,2.0,64,0.00,,---,0.00,VWS V13.01,2013-04-10 16:14:00,
2013-04-10 12:15:00,62.2,49.9,29.26,NE,45,0.0,0.0,64,0.00,,---,0.00,VWS V13.01,2013-04-10 16:15:00,
2013-04-10 12:18:00,62.2,49.9,29.26,West,270,2.9,2.9,64,0.00,,---,0.00,VWS V13.01,2013-04-10 16:18:00,
2013-04-10 12:19:00,62.2,49.9,29.26,West,270,2.0,2.2,64,0.00,,---,0.00,VWS V13.01,2013-04-10 16:19:00,
2013-04-10 12:21:00,62.2,49.9,29.26,North,0,1.1,2.0,64,0.00,,---,0.00,VWS V13.01,2013-04-10 16:21:00,
2013-04-10 12:23:00,62.2,49.9,29.26,East,90,0.0,0.0,64,0.00,,---,0.00,VWS V13.01,2013-04-10 16:23:00,
2013-04-10 12:24:00,62.2,49.9,29.26,WNW,292,1.6,1.6,64,0.00,,---,0.00,VWS V13.01,2013-04-10 16:24:00,
2013-04-10 12:25:00,62.2,49.9,29.26,SW,225,3.6,3.6,64,0.00,,---,0.00,VWS V13.01,2013-04-10 16:25:00,
2013-04-10 12:26:00,62.2,49.9,29.26,WNW,292,0.0,3.6,64,0.00,,---,0.00,VWS V13.01,2013-04-10 16:26:00,
2013-04-10 12:28:00,62.2,49.9,29.26,West,270,2.5,2.5,64,0.00,,---,0.00,VWS V13.01,2013-04-10 16:28:00,
2013-04-10 12:29:00,62.2,49.9,29.26,WSW,248,0.0,2.5,64,0.00,,---,0.00,VWS V13.01,2013-04-10 16:29:00,
2013-04-10 12:30:00,62.2,49.9,29.26,WSW,248,0.0,2.5,64,0.00,,---,0.00,VWS V13.01,2013-04-10 16:30:00,
2013-04-10 12:31:00,62.2,49.9,29.26,SSE,158,0.0,2.0,64,0.00,,---,0.00,VWS V13.01,2013-04-10 16:31:00,
2013-04-10 12:33:00,62.2,49.9,29.26,South,180,0.0,0.0,64,0.00,,---,0.00,VWS V13.01,2013-04-10 16:33:00,
2013-04-10 12:35:00,62.2,49.9,29.26,NNW,338,0.9,1.6,64,0.00,,---,0.00,VWS V13.01,2013-04-10 16:35:00,
2013-04-10 12:36:00,62.4,50.1,29.26,NE,45,1.1,1.1,64,0.00,,---,0.00,VWS V13.01,2013-04-10 16:36:00,
2013-04-10 12:37:00,62.4,50.1,29.26,WSW,248,2.7,2.7,64,0.00,,---,0.00,VWS V13.01,2013-04-10 16:37:00,
2013-04-10 12:38:00,62.4,50.1,29.26,WSW,248,2.5,2.5,64,0.00,,---,0.00,VWS V13.01,2013-04-10 16:38:00,
2013-04-10 12:40:00,62.8,50.0,29.26,WSW,248,1.6,2.5,63,0.00,,---,0.00,VWS V13.01,2013-04-10 16:40:00,
2013-04-10 12:41:00,62.8,50.0,29.26,West,270,2.9,2.9,63,0.00,,---,0.00,VWS V13.01,2013-04-10 16:41:00,
2013-04-10 12:42:00,63.0,50.2,29.26,West,270,1.6,1.6,63,0.00,,---,0.00,VWS V13.01,2013-04-10 16:42:00,
2013-04-10 12:44:00,63.0,50.2,29.26,NNW,338,0.0,1.6,63,0.00,,---,0.00,VWS V13.01,2013-04-10 16:44:00,
2013-04-10 12:45:00,63.0,50.2,29.26,West,270,2.9,2.9,63,0.00,,---,0.00,VWS V13.01,2013-04-10 16:45:00,
2013-04-10 12:46:00,63.0,50.2,29.26,SE,135,0.0,2.9,63,0.00,,---,0.00,VWS V13.01,2013-04-10 16:46:00,
2013-04-10 12:48:00,63.9,51.0,29.26,NE,45,0.0,0.9,63,0.00,,---,0.00,VWS V13.01,2013-04-10 16:48:00,
2013-04-10 12:49:00,63.9,51.0,29.26,NE,45,0.0,0.0,63,0.00,,---,0.00,VWS V13.01,2013-04-10 16:49:00,
2013-04-10 12:50:00,63.9,51.0,29.26,WSW,248,4.0,4.0,63,0.00,,---,0.00,VWS V13.01,2013-04-10 16:50:00,
2013-04-10 12:51:00,64.2,50.9,29.26,WSW,248,4.0,4.0,62,0.00,,---,0.00,VWS V13.01,2013-04-10 16:51:00,
2013-04-10 12:53:00,64.2,50.9,29.26,North,0,0.0,1.3,62,0.00,,---,0.00,VWS V13.01,2013-04-10 16:53:00,
2013-04-10 12:54:00,64.2,50.9,29.26,WSW,248,2.2,2.2,62,0.00,,---,0.00,VWS V13.01,2013-04-10 16:54:00,
2013-04-10 12:56:00,64.2,50.9,29.26,WSW,248,1.1,2.2,62,0.00,,---,0.00,VWS V13.01,2013-04-10 16:56:00,
2013-04-10 12:57:00,65.3,52.0,29.26,SSW,202,2.7,2.7,62,0.00,,---,0.00,VWS V13.01,2013-04-10 16:57:00,
2013-04-10 12:58:00,66.0,52.6,29.26,WSW,248,3.1,3.1,62,0.00,,---,0.00,VWS V13.01,2013-04-10 16:58:00,
2013-04-10 12:59:00,66.0,52.6,29.26,SSW,202,1.1,1.1,62,0.00,,---,0.00,VWS V13.01,2013-04-10 16:59:00,
2013-04-10 13:02:00,66.0,52.6,29.26,South,180,0.0,1.3,62,0.00,,---,0.00,VWS V13.01,2013-04-10 17:02:00,
2013-04-10 13:03:00,66.0,52.6,29.26,WNW,292,1.1,1.1,62,0.00,,---,0.00,VWS V13.01,2013-04-10 17:03:00,
2013-04-10 13:04:00,66.0,52.6,29.26,West,270,4.3,4.3,62,0.00,,---,0.00,VWS V13.01,2013-04-10 17:04:00,
2013-04-10 13:07:00,65.8,51.1,29.23,NNW,338,0.0,2.7,59,0.00,,---,0.00,VWS V13.01,2013-04-10 17:07:00,
2013-04-10 13:08:00,65.8,51.1,29.23,SE,135,1.6,1.6,59,0.00,,---,0.00,VWS V13.01,2013-04-10 17:08:00,
2013-04-10 13:09:00,65.8,51.1,29.23,West,270,4.7,4.7,59,0.00,,---,0.00,VWS V13.01,2013-04-10 17:09:00,
2013-04-10 13:12:00,65.8,51.6,29.23,West,270,2.5,2.7,60,0.00,,---,0.00,VWS V13.01,2013-04-10 17:12:00,
2013-04-10 13:13:00,65.8,51.6,29.23,West,270,3.1,3.1,60,0.00,,---,0.00,VWS V13.01,2013-04-10 17:13:00,
2013-04-10 13:14:00,65.8,51.6,29.23,WSW,248,1.1,3.1,60,0.00,,---,0.00,VWS V13.01,2013-04-10 17:14:00,
2013-04-10 13:17:00,65.8,51.6,29.23,NW,315,0.0,2.0,60,0.00,,---,0.00,VWS V13.01,2013-04-10 17:17:00,
2013-04-10 13:18:00,66.0,51.3,29.23,East,90,0.0,0.0,59,0.00,,---,0.00,VWS V13.01,2013-04-10 17:18:00,
2013-04-10 13:20:00,66.0,51.3,29.23,West,270,3.6,3.6,59,0.00,,---,0.00,VWS V13.01,2013-04-10 17:20:00,
2013-04-10 13:22:00,66.0,51.3,29.23,WSW,248,3.4,3.4,59,0.00,,---,0.00,VWS V13.01,2013-04-10 17:22:00,
2013-04-10 13:23:00,66.0,51.3,29.23,SSE,158,6.0,6.0,59,0.00,,---,0.00,VWS V13.01,2013-04-10 17:23:00,
2013-04-10 13:24:00,66.0,51.3,29.23,SW,225,0.0,6.0,59,0.00,,---,0.00,VWS V13.01,2013-04-10 17:24:00,
2013-04-10 13:25:00,66.0,51.3,29.23,SW,225,0.0,0.0,59,0.00,,---,0.00,VWS V13.01,2013-04-10 17:25:00,
2013-04-10 13:27:00,66.0,51.3,29.23,WNW,292,0.0,0.0,59,0.00,,---,0.00,VWS V13.01,2013-04-10 17:27:00,
2013-04-10 13:28:00,66.0,51.3,29.23,NW,315,2.0,2.0,59,0.00,,---,0.00,VWS V13.01,2013-04-10 17:28:00,
2013-04-10 13:30:00,66.0,51.3,29.23,WNW,292,3.4,3.4,59,0.00,,---,0.00,VWS V13.01,2013-04-10 17:30:00,
2013-04-10 13:33:00,66.0,51.3,29.23,NW,315,3.1,3.1,59,0.00,,---,0.00,VWS V13.01,2013-04-10 17:33:00,
2013-04-10 13:35:00,66.0,51.3,29.23,ESE,112,2.5,3.1,59,0.00,,---,0.00,VWS V13.01,2013-04-10 17:35:00,
2013-04-10 13:38:00,67.3,51.5,29.23,East,90,0.9,4.0,57,0.00,,---,0.00,VWS V13.01,2013-04-10 17:38:00,
2013-04-10 13:40:00,67.3,51.5,29.23,NNE,22,1.3,1.3,57,0.00,,---,0.00,VWS V13.01,2013-04-10 17:40:00,
2013-04-10 13:43:00,66.9,50.7,29.23,SSE,158,2.5,4.0,56,0.00,,---,0.00,VWS V13.01,2013-04-10 17:43:00,
2013-04-10 13:45:00,66.4,50.2,29.23,ESE,112,0.0,0.0,56,0.00,,---,0.00,VWS V13.01,2013-04-10 17:45:00,
2013-04-10 13:48:00,66.4,50.2,29.23,WNW,292,0.0,1.1,56,0.00,,---,0.00,VWS V13.01,2013-04-10 17:48:00,
2013-04-10 13:50:00,66.4,50.2,29.23,ENE,68,1.3,2.9,56,0.00,,---,0.00,VWS V13.01,2013-04-10 17:50:00,
2013-04-10 13:53:00,66.4,50.2,29.23,West,270,2.5,2.5,56,0.00,,---,0.00,VWS V13.01,2013-04-10 17:53:00,
2013-04-10 13:54:00,66.4,50.2,29.23,West,270,2.5,2.5,56,0.00,,---,0.00,VWS V13.01,2013-04-10 17:54:00,
2013-04-10 13:55:00,66.4,50.2,29.23,NW,315,1.1,2.0,56,0.00,,---,0.00,VWS V13.01,2013-04-10 17:55:00,
2013-04-10 13:58:00,66.4,50.2,29.23,NNW,338,2.2,2.2,56,0.00,,---,0.00,VWS V13.01,2013-04-10 17:58:00,
2013-04-10 13:59:00,66.4,50.2,29.23,SSW,202,1.3,2.2,56,0.00,,---,0.00,VWS V13.01,2013-04-10 17:59:00,
2013-04-10 14:00:00,67.6,51.4,29.23,West,270,0.0,0.0,56,0.00,,---,0.00,VWS V13.01,2013-04-10 18:00:00,
2013-04-10 14:01:00,67.6,51.4,29.23,WSW,248,1.3,1.3,56,0.00,,---,0.00,VWS V13.01,2013-04-10 18:01:00,
2013-04-10 14:04:00,68.0,51.7,29.23,NE,45,1.1,2.7,56,0.00,,---,0.00,VWS V13.01,2013-04-10 18:04:00,
2013-04-10 14:05:00,68.0,51.7,29.23,North,0,3.8,3.8,56,0.00,,---,0.00,VWS V13.01,2013-04-10 18:05:00,
2013-04-10 14:06:00,68.0,51.7,29.23,North,0,3.8,3.8,56,0.00,,---,0.00,VWS V13.01,2013-04-10 18:06:00,
2013-04-10 14:09:00,67.6,50.9,29.23,NE,45,1.1,1.6,55,0.00,,---,0.00,VWS V13.01,2013-04-10 18:09:00,
2013-04-10 14:10:00,67.6,50.9,29.23,NW,315,0.0,0.0,55,0.00,,---,0.00,VWS V13.01,2013-04-10 18:10:00,
2013-04-10 14:11:00,67.6,50.9,29.23,NW,315,0.0,0.0,55,0.00,,---,0.00,VWS V13.01,2013-04-10 18:11:00,
2013-04-10 14:14:00,68.0,51.2,29.23,WSW,248,2.2,2.2,55,0.00,,---,0.00,VWS V13.01,2013-04-10 18:14:00,
2013-04-10 14:15:00,68.0,51.2,29.23,WNW,292,3.4,3.4,55,0.00,,---,0.00,VWS V13.01,2013-04-10 18:15:00,
2013-04-10 14:16:00,68.2,50.9,29.23,ENE,68,0.0,2.5,54,0.00,,---,0.00,VWS V13.01,2013-04-10 18:16:00,
2013-04-10 14:19:00,68.5,51.2,29.23,East,90,2.0,3.6,54,0.00,,---,0.00,VWS V13.01,2013-04-10 18:19:00,
2013-04-10 14:20:00,68.5,51.2,29.23,East,90,2.0,2.0,54,0.00,,---,0.00,VWS V13.01,2013-04-10 18:20:00,
2013-04-10 14:23:00,68.5,51.2,29.20,WNW,292,1.6,1.6,54,0.00,,---,0.00,VWS V13.01,2013-04-10 18:23:00,
2013-04-10 14:24:00,68.5,51.2,29.20,NNE,22,3.8,3.8,54,0.00,,---,0.00,VWS V13.01,2013-04-10 18:24:00,
2013-04-10 14:26:00,68.5,51.2,29.20,NNE,22,3.8,3.8,54,0.00,,---,0.00,VWS V13.01,2013-04-10 18:26:00,
2013-04-10 14:28:00,68.5,51.2,29.20,North,0,0.0,0.0,54,0.00,,---,0.00,VWS V13.01,2013-04-10 18:28:00,
2013-04-10 14:29:00,68.5,51.2,29.20,North,0,0.0,0.0,54,0.00,,---,0.00,VWS V13.01,2013-04-10 18:29:00,
2013-04-10 14:30:00,68.5,51.2,29.20,NE,45,1.6,1.6,54,0.00,,---,0.00,VWS V13.01,2013-04-10 18:30:00,
2013-04-10 14:31:00,68.5,51.2,29.20,NE,45,3.4,3.4,54,0.00,,---,0.00,VWS V13.01,2013-04-10 18:31:00,
2013-04-10 14:33:00,68.5,51.2,29.20,ESE,112,2.9,2.9,54,0.00,,---,0.00,VWS V13.01,2013-04-10 18:33:00,
2013-04-10 14:34:00,67.8,50.1,29.20,East,90,2.7,2.9,53,0.00,,---,0.00,VWS V13.01,2013-04-10 18:34:00,
2013-04-10 14:35:00,67.8,50.1,29.20,East,90,2.7,2.7,53,0.00,,---,0.00,VWS V13.01,2013-04-10 18:35:00,
2013-04-10 14:36:00,67.8,50.1,29.20,WSW,248,1.3,1.6,53,0.00,,---,0.00,VWS V13.01,2013-04-10 18:36:00,
2013-04-10 14:39:00,68.0,50.8,29.20,NNE,22,2.5,2.5,54,0.00,,---,0.00,VWS V13.01,2013-04-10 18:39:00,
2013-04-10 14:40:00,68.0,50.8,29.20,East,90,1.3,1.3,54,0.00,,---,0.00,VWS V13.01,2013-04-10 18:40:00,
2013-04-10 14:41:00,68.0,50.8,29.20,South,180,0.9,1.3,54,0.00,,---,0.00,VWS V13.01,2013-04-10 18:41:00,
2013-04-10 14:44:00,68.0,50.8,29.23,NNW,338,3.6,3.6,54,0.00,,---,0.00,VWS V13.01,2013-04-10 18:44:00,
2013-04-10 14:45:00,68.0,50.8,29.23,East,90,2.2,2.2,54,0.00,,---,0.00,VWS V13.01,2013-04-10 18:45:00,
2013-04-10 14:46:00,68.0,50.8,29.23,NE,45,3.4,3.4,54,0.00,,---,0.00,VWS V13.01,2013-04-10 18:46:00,
2013-04-10 14:49:00,68.0,50.8,29.23,NNE,22,2.5,2.5,54,0.00,,---,0.00,VWS V13.01,2013-04-10 18:49:00,
2013-04-10 14:50:00,68.0,50.8,29.23,WSW,248,1.6,3.4,54,0.00,,---,0.00,VWS V13.01,2013-04-10 18:50:00,
2013-04-10 14:52:00,67.8,50.1,29.20,SE,135,0.0,0.0,53,0.00,,---,0.00,VWS V13.01,2013-04-10 18:52:00,
2013-04-10 14:54:00,67.8,50.1,29.20,SE,135,1.3,1.3,53,0.00,,---,0.00,VWS V13.01,2013-04-10 18:54:00,
2013-04-10 14:55:00,67.8,50.1,29.20,SSE,158,0.0,0.9,53,0.00,,---,0.00,VWS V13.01,2013-04-10 18:55:00,
2013-04-10 14:56:00,67.8,50.1,29.20,SSE,158,0.0,0.9,53,0.00,,---,0.00,VWS V13.01,2013-04-10 18:56:00,
2013-04-10 14:57:00,68.0,50.2,29.20,ESE,112,0.0,0.0,53,0.00,,---,0.00,VWS V13.01,2013-04-10 18:57:00,
2013-04-10 14:59:00,67.8,50.1,29.20,East,90,1.1,2.9,53,0.00,,---,0.00,VWS V13.01,2013-04-10 18:59:00,
2013-04-10 15:00:00,67.8,50.1,29.20,SE,135,1.3,1.6,53,0.00,,---,0.00,VWS V13.01,2013-04-10 19:00:00,
2013-04-10 15:01:00,67.8,50.1,29.20,SE,135,1.3,1.6,53,0.00,,---,0.00,VWS V13.01,2013-04-10 19:01:00,
2013-04-10 15:02:00,67.8,50.1,29.20,SE,135,0.0,1.6,53,0.00,,---,0.00,VWS V13.01,2013-04-10 19:02:00,
2013-04-10 15:04:00,67.8,50.1,29.20,WSW,248,0.0,0.0,53,0.00,,---,0.00,VWS V13.01,2013-04-10 19:04:00,
2013-04-10 15:05:00,67.8,50.1,29.20,North,0,1.3,1.3,53,0.00,,---,0.00,VWS V13.01,2013-04-10 19:05:00,
2013-04-10 15:06:00,67.8,50.1,29.20,North,0,1.3,1.3,53,0.00,,---,0.00,VWS V13.01,2013-04-10 19:06:00,
2013-04-10 15:07:00,68.5,50.8,29.20,SW,225,0.0,1.1,53,0.00,,---,0.00,VWS V13.01,2013-04-10 19:07:00,
2013-04-10 15:09:00,68.5,50.8,29.20,South,180,0.0,0.0,53,0.00,,---,0.00,VWS V13.01,2013-04-10 19:09:00,
2013-04-10 15:10:00,68.5,50.8,29.20,North,0,2.2,2.2,53,0.00,,---,0.00,VWS V13.01,2013-04-10 19:10:00,
2013-04-10 15:11:00,68.5,50.8,29.20,North,0,2.2,2.2,53,0.00,,---,0.00,VWS V13.01,2013-04-10 19:11:00,
2013-04-10 15:13:00,68.5,50.8,29.20,SSW,202,0.0,1.6,53,0.00,,---,0.00,VWS V13.01,2013-04-10 19:13:00,
2013-04-10 15:15:00,68.5,50.8,29.20,SW,225,1.6,1.6,53,0.00,,---,0.00,VWS V13.01,2013-04-10 19:15:00,
2013-04-10 15:16:00,68.5,50.8,29.20,NNW,338,1.3,1.6,53,0.00,,---,0.00,VWS V13.01,2013-04-10 19:16:00,
2013-04-10 15:18:00,68.5,50.8,29.20,ENE,68,2.0,2.9,53,0.00,,---,0.00,VWS V13.01,2013-04-10 19:18:00,
2013-04-10 15:20:00,68.5,50.8,29.20,North,0,0.9,2.9,53,0.00,,---,0.00,VWS V13.01,2013-04-10 19:20:00,
2013-04-10 15:21:00,68.5,50.8,29.20,ENE,68,1.6,1.6,53,0.00,,---,0.00,VWS V13.01,2013-04-10 19:21:00,
2013-04-10 15:23:00,68.5,50.8,29.20,ENE,68,1.1,1.1,53,0.00,,---,0.00,VWS V13.01,2013-04-10 19:23:00,
2013-04-10 15:25:00,68.5,50.8,29.20,East,90,0.0,0.0,53,0.00,,---,0.00,VWS V13.01,2013-04-10 19:25:00,
2013-04-10 15:26:00,68.5,50.8,29.20,SE,135,0.0,0.0,53,0.00,,---,0.00,VWS V13.01,2013-04-10 19:26:00,
2013-04-10 15:28:00,68.2,49.9,29.20,East,90,1.3,1.3,52,0.00,,---,0.00,VWS V13.01,2013-04-10 19:28:00,
2013-04-10 15:30:00,68.4,50.6,29.20,SW,225,0.0,0.0,53,0.00,,---,0.00,VWS V13.01,2013-04-10 19:30:00,
2013-04-10 15:31:00,68.4,50.6,29.20,SW,225,0.0,0.0,53,0.00,,---,0.00,VWS V13.01,2013-04-10 19:31:00,
2013-04-10 15:32:00,68.4,50.6,29.20,SW,225,0.0,0.0,53,0.00,,---,0.00,VWS V13.01,2013-04-10 19:32:00,
2013-04-10 15:33:00,68.4,50.6,29.20,NNW,338,1.1,1.1,53,0.00,,---,0.00,VWS V13.01,2013-04-10 19:33:00,
2013-04-10 15:35:00,68.4,50.6,29.20,ENE,68,1.6,1.6,53,0.00,,---,0.00,VWS V13.01,2013-04-10 19:35:00,
2013-04-10 15:36:00,68.4,50.6,29.20,ENE,68,1.6,1.6,53,0.00,,---,0.00,VWS V13.01,2013-04-10 19:36:00,
2013-04-10 15:37:00,68.4,50.6,29.20,West,270,0.0,0.0,53,0.00,,---,0.00,VWS V13.01,2013-04-10 19:37:00,
2013-04-10 15:38:00,68.4,50.6,29.20,North,0,2.7,2.7,53,0.00,,---,0.00,VWS V13.01,2013-04-10 19:38:00,
2013-04-10 15:41:00,68.4,50.6,29.17,East,90,2.0,2.0,53,0.00,,---,0.00,VWS V13.01,2013-04-10 19:41:00,
2013-04-10 15:42:00,68.4,50.6,29.17,NE,45,2.0,2.0,53,0.00,,---,0.00,VWS V13.01,2013-04-10 19:42:00,
2013-04-10 15:43:00,68.9,50.6,29.17,North,0,1.1,1.1,52,0.00,,---,0.00,VWS V13.01,2013-04-10 19:43:00,
2013-04-10 15:46:00,68.9,50.6,29.17,SE,135,2.7,2.7,52,0.00,,---,0.00,VWS V13.01,2013-04-10 19:46:00,
2013-04-10 15:47:00,68.9,50.6,29.17,South,180,0.0,0.0,52,0.00,,---,0.00,VWS V13.01,2013-04-10 19:47:00,
2013-04-10 15:48:00,68.9,50.6,29.17,SE,135,2.2,2.5,52,0.00,,---,0.00,VWS V13.01,2013-04-10 19:48:00,
2013-04-10 15:51:00,68.9,51.1,29.17,East,90,1.1,1.6,53,0.00,,---,0.00,VWS V13.01,2013-04-10 19:51:00,
2013-04-10 15:52:00,68.9,51.1,29.17,East,90,1.1,1.1,53,0.00,,---,0.00,VWS V13.01,2013-04-10 19:52:00,
2013-04-10 15:54:00,68.9,51.1,29.17,NE,45,0.9,1.6,53,0.00,,---,0.00,VWS V13.01,2013-04-10 19:54:00,
2013-04-10 15:56:00,68.7,50.4,29.17,SE,135,0.0,0.0,52,0.00,,---,0.00,VWS V13.01,2013-04-10 19:56:00,
2013-04-10 15:58:00,68.7,50.4,29.17,NNW,338,2.0,2.0,52,0.00,,---,0.00,VWS V13.01,2013-04-10 19:58:00,
2013-04-10 15:59:00,68.7,50.4,29.17,NE,45,1.3,2.0,52,0.00,,---,0.00,VWS V13.01,2013-04-10 19:59:00,
2013-04-10 16:01:00,68.4,50.1,29.17,SE,135,0.0,2.0,52,0.00,,---,0.00,VWS V13.01,2013-04-10 20:01:00,
2013-04-10 16:02:00,68.4,50.1,29.17,SE,135,0.0,2.0,52,0.00,,---,0.00,VWS V13.01,2013-04-10 20:02:00,
2013-04-10 16:03:00,68.4,50.1,29.17,SE,135,0.0,0.0,52,0.00,,---,0.00,VWS V13.01,2013-04-10 20:03:00,
2013-04-10 16:04:00,68.4,50.1,29.17,East,90,2.5,2.5,52,0.00,,---,0.00,VWS V13.01,2013-04-10 20:04:00,
2013-04-10 16:07:00,68.4,50.1,29.17,SE,135,0.0,2.0,52,0.00,,---,0.00,VWS V13.01,2013-04-10 20:07:00,
2013-04-10 16:08:00,68.4,50.1,29.17,ESE,112,1.6,3.1,52,0.00,,---,0.00,VWS V13.01,2013-04-10 20:08:00,
2013-04-10 16:09:00,68.4,50.1,29.17,NE,45,2.5,2.5,52,0.00,,---,0.00,VWS V13.01,2013-04-10 20:09:00,
2013-04-10 16:12:00,68.4,50.1,29.17,NE,45,0.0,0.0,52,0.00,,---,0.00,VWS V13.01,2013-04-10 20:12:00,
2013-04-10 16:13:00,68.4,50.1,29.17,NE,45,0.9,0.9,52,0.00,,---,0.00,VWS V13.01,2013-04-10 20:13:00,
2013-04-10 16:14:00,68.4,50.1,29.17,East,90,0.0,0.0,52,0.00,,---,0.00,VWS V13.01,2013-04-10 20:14:00,
2013-04-10 16:17:00,68.4,50.1,29.17,SSE,158,0.0,1.3,52,0.00,,---,0.00,VWS V13.01,2013-04-10 20:17:00,
2013-04-10 16:18:00,68.4,50.1,29.17,SSW,202,0.0,0.0,52,0.00,,---,0.00,VWS V13.01,2013-04-10 20:18:00,
2013-04-10 16:19:00,68.4,50.1,29.17,SSW,202,0.0,0.0,52,0.00,,---,0.00,VWS V13.01,2013-04-10 20:19:00,
2013-04-10 16:23:00,69.3,50.9,29.14,NE,45,0.9,0.9,52,0.00,,---,0.00,VWS V13.01,2013-04-10 20:23:00,
2013-04-10 16:24:00,69.3,50.9,29.14,NE,45,0.9,0.9,52,0.00,,---,0.00,VWS V13.01,2013-04-10 20:24:00,
2013-04-10 16:28:00,69.3,50.9,29.14,SSE,158,0.0,0.0,52,0.00,,---,0.00,VWS V13.01,2013-04-10 20:28:00,
2013-04-10 16:29:00,69.3,50.9,29.14,SSE,158,0.0,0.0,52,0.00,,---,0.00,VWS V13.01,2013-04-10 20:29:00,
2013-04-10 16:33:00,69.3,50.9,29.14,SSW,202,1.6,1.6,52,0.00,,---,0.00,VWS V13.01,2013-04-10 20:33:00,
2013-04-10 16:34:00,69.3,50.9,29.14,SSW,202,1.6,1.6,52,0.00,,---,0.00,VWS V13.01,2013-04-10 20:34:00,
2013-04-10 16:35:00,69.3,50.9,29.14,SSW,202,0.0,1.6,52,0.00,,---,0.00,VWS V13.01,2013-04-10 20:35:00,
2013-04-10 16:38:00,69.3,50.9,29.14,ESE,112,0.0,1.3,52,0.00,,---,0.00,VWS V13.01,2013-04-10 20:38:00,
2013-04-10 16:39:00,69.3,50.9,29.14,ESE,112,0.0,0.0,52,0.00,,---,0.00,VWS V13.01,2013-04-10 20:39:00,
2013-04-10 16:40:00,69.3,50.9,29.14,East,90,4.0,4.0,52,0.00,,---,0.00,VWS V13.01,2013-04-10 20:40:00,
2013-04-10 16:43:00,69.6,51.8,29.14,SSE,158,6.0,7.8,53,0.00,,---,0.00,VWS V13.01,2013-04-10 20:43:00,
2013-04-10 16:44:00,69.6,51.8,29.14,SSW,202,2.0,6.0,53,0.00,,---,0.00,VWS V13.01,2013-04-10 20:44:00,
2013-04-10 16:45:00,69.6,51.8,29.14,SSE,158,3.4,3.4,53,0.00,,---,0.00,VWS V13.01,2013-04-10 20:45:00,
2013-04-10 16:48:00,69.6,51.8,29.14,South,180,3.8,6.0,53,0.00,,---,0.00,VWS V13.01,2013-04-10 20:48:00,
2013-04-10 16:49:00,69.4,51.1,29.14,SSW,202,2.7,3.8,52,0.00,,---,0.00,VWS V13.01,2013-04-10 20:49:00,
2013-04-10 16:50:00,69.4,51.1,29.14,South,180,2.2,2.2,52,0.00,,---,0.00,VWS V13.01,2013-04-10 20:50:00,
2013-04-10 16:54:00,69.4,50.5,29.14,SSE,158,0.0,1.1,51,0.00,,---,0.00,VWS V13.01,2013-04-10 20:54:00,
2013-04-10 16:55:00,69.4,50.5,29.14,SSE,158,1.3,2.0,51,0.00,,---,0.00,VWS V13.01,2013-04-10 20:55:00,
2013-04-10 16:56:00,69.4,50.5,29.14,ENE,68,2.0,2.0,51,0.00,,---,0.00,VWS V13.01,2013-04-10 20:56:00,
2013-04-10 16:59:00,69.4,50.5,29.14,SW,225,0.9,1.6,51,0.00,,---,0.00,VWS V13.01,2013-04-10 20:59:00,
2013-04-10 17:01:00,69.4,50.5,29.14,SSE,158,0.0,0.9,51,0.00,,---,0.00,VWS V13.01,2013-04-10 21:01:00,
2013-04-10 17:02:00,69.4,50.5,29.14,South,180,1.6,1.6,51,0.00,,---,0.00,VWS V13.01,2013-04-10 21:02:00,
2013-04-10 17:04:00,69.4,50.5,29.14,SSW,202,0.0,1.1,51,0.00,,---,0.00,VWS V13.01,2013-04-10 21:04:00,
2013-04-10 17:05:00,69.4,50.5,29.14,SSW,202,1.1,1.1,51,0.00,,---,0.00,VWS V13.01,2013-04-10 21:05:00,
2013-04-10 17:07:00,69.4,50.5,29.14,South,180,0.0,0.0,51,0.00,,---,0.00,VWS V13.01,2013-04-10 21:07:00,
2013-04-10 17:09:00,69.4,50.5,29.14,SSE,158,2.2,2.9,51,0.00,,---,0.00,VWS V13.01,2013-04-10 21:09:00,
2013-04-10 17:10:00,69.4,50.5,29.14,SSE,158,3.4,3.4,51,0.00,,---,0.00,VWS V13.01,2013-04-10 21:10:00,
2013-04-10 17:12:00,67.8,50.1,29.14,ESE,112,2.0,2.7,53,0.00,,---,0.00,VWS V13.01,2013-04-10 21:12:00,
2013-04-10 17:13:00,67.8,50.1,29.14,South,180,4.3,4.3,53,0.00,,---,0.00,VWS V13.01,2013-04-10 21:13:00,
2013-04-10 17:14:00,67.8,50.1,29.14,South,180,4.3,4.3,53,0.00,,---,0.00,VWS V13.01,2013-04-10 21:14:00,
2013-04-10 17:15:00,67.8,50.1,29.14,SE,135,0.9,4.3,53,0.00,,---,0.00,VWS V13.01,2013-04-10 21:15:00,
2013-04-10 17:18:00,67.5,49.8,29.14,SSW,202,1.6,2.0,53,0.00,,---,0.00,VWS V13.01,2013-04-10 21:18:00,
2013-04-10 17:19:00,67.5,49.8,29.14,SSE,158,2.2,2.2,53,0.00,,---,0.00,VWS V13.01,2013-04-10 21:19:00,
2013-04-10 17:20:00,67.5,49.8,29.14,South,180,0.0,2.2,53,0.00,,---,0.00,VWS V13.01,2013-04-10 21:20:00,
2013-04-10 17:23:00,67.5,49.8,29.14,SSW,202,2.9,5.4,53,0.00,,---,0.00,VWS V13.01,2013-04-10 21:23:00,
2013-04-10 17:24:00,67.5,49.8,29.14,South,180,1.3,1.3,53,0.00,,---,0.00,VWS V13.01,2013-04-10 21:24:00,
2013-04-10 17:25:00,67.5,49.8,29.14,South,180,1.3,1.3,53,0.00,,---,0.00,VWS V13.01,2013-04-10 21:25:00,
2013-04-10 17:28:00,67.5,49.8,29.14,South,180,1.1,2.0,53,0.00,,---,0.00,VWS V13.01,2013-04-10 21:28:00,
2013-04-10 17:29:00,67.5,49.8,29.14,SE,135,2.7,2.7,53,0.00,,---,0.00,VWS V13.01,2013-04-10 21:29:00,
2013-04-10 17:30:00,67.5,49.8,29.14,SW,225,3.4,3.4,53,0.00,,---,0.00,VWS V13.01,2013-04-10 21:30:00,
2013-04-10 17:33:00,67.5,49.8,29.14,SSE,158,2.0,2.0,53,0.00,,---,0.00,VWS V13.01,2013-04-10 21:33:00,
2013-04-10 17:34:00,67.5,49.8,29.14,SSE,158,2.0,2.0,53,0.00,,---,0.00,VWS V13.01,2013-04-10 21:34:00,
2013-04-10 17:35:00,67.5,49.8,29.14,South,180,0.0,0.0,53,0.00,,---,0.00,VWS V13.01,2013-04-10 21:35:00,
2013-04-10 17:38:00,67.5,49.8,29.14,SSE,158,1.6,1.6,53,0.00,,---,0.00,VWS V13.01,2013-04-10 21:38:00,
2013-04-10 17:39:00,67.5,49.8,29.14,SSE,158,1.6,1.6,53,0.00,,---,0.00,VWS V13.01,2013-04-10 21:39:00,
2013-04-10 17:40:00,67.5,49.8,29.12,South,180,1.3,1.3,53,0.00,,---,0.00,VWS V13.01,2013-04-10 21:40:00,
2013-04-10 17:44:00,65.7,48.6,29.12,South,180,2.5,4.7,54,0.00,,---,0.00,VWS V13.01,2013-04-10 21:44:00,
2013-04-10 17:45:00,65.7,48.6,29.12,SE,135,7.4,7.4,54,0.00,,---,0.00,VWS V13.01,2013-04-10 21:45:00,
2013-04-10 17:49:00,65.5,48.9,29.12,South,180,3.8,3.8,55,0.00,,---,0.00,VWS V13.01,2013-04-10 21:49:00,
2013-04-10 17:50:00,65.5,48.9,29.12,South,180,3.8,3.8,55,0.00,,---,0.00,VWS V13.01,2013-04-10 21:50:00,
2013-04-10 17:54:00,65.5,48.9,29.14,SSW,202,0.9,0.9,55,0.00,,---,0.00,VWS V13.01,2013-04-10 21:54:00,
2013-04-10 17:55:00,65.5,48.9,29.14,ESE,112,1.3,1.3,55,0.00,,---,0.00,VWS V13.01,2013-04-10 21:55:00,
2013-04-10 17:59:00,65.5,48.9,29.14,SE,135,4.3,4.3,55,0.00,,---,0.00,VWS V13.01,2013-04-10 21:59:00,
2013-04-10 18:00:00,65.5,48.9,29.14,South,180,4.7,4.7,55,0.00,,---,0.00,VWS V13.01,2013-04-10 22:00:00,
2013-04-10 18:02:00,65.5,48.9,29.14,South,180,2.2,5.6,55,0.00,,---,0.00,VWS V13.01,2013-04-10 22:02:00,
2013-04-10 18:05:00,65.5,48.9,29.14,South,180,0.0,1.1,55,0.00,,---,0.00,VWS V13.01,2013-04-10 22:05:00,
2013-04-10 18:06:00,65.5,48.9,29.14,SSE,158,0.0,1.6,55,0.00,,---,0.00,VWS V13.01,2013-04-10 22:06:00,
2013-04-10 18:07:00,64.4,48.4,29.14,SSE,158,0.0,0.0,56,0.00,,---,0.00,VWS V13.01,2013-04-10 22:07:00,
2013-04-10 18:16:00,64.2,48.2,29.14,SSE,158,1.6,1.6,56,0.00,,---,0.00,VWS V13.01,2013-04-10 22:16:00,
2013-04-10 18:18:00,64.2,48.2,29.14,SE,135,1.6,1.6,56,0.00,,---,0.00,VWS V13.01,2013-04-10 22:18:00,
2013-04-10 18:23:00,64.2,48.2,29.14,SE,135,2.5,2.7,56,0.00,,---,0.00,VWS V13.01,2013-04-10 22:23:00,
2013-04-10 18:28:00,64.2,48.2,29.14,SSE,158,2.9,2.9,56,0.00,,---,0.00,VWS V13.01,2013-04-10 22:28:00,
2013-04-10 18:29:00,64.2,48.2,29.14,South,180,4.9,4.9,56,0.00,,---,0.00,VWS V13.01,2013-04-10 22:29:00,
2013-04-10 18:34:00,64.2,48.2,29.14,SSE,158,0.9,0.9,56,0.00,,---,0.00,VWS V13.01,2013-04-10 22:34:00,
2013-04-10 18:35:00,64.2,48.2,29.14,SE,135,0.0,0.9,56,0.00,,---,0.00,VWS V13.01,2013-04-10 22:35:00,
2013-04-10 18:40:00,62.8,47.8,29.14,SE,135,2.0,2.0,58,0.00,,---,0.00,VWS V13.01,2013-04-10 22:40:00,
2013-04-10 18:45:00,62.6,47.6,29.12,South,180,1.3,2.7,58,0.00,,---,0.00,VWS V13.01,2013-04-10 22:45:00,
2013-04-10 18:46:00,62.6,47.6,29.12,ENE,68,2.2,2.2,58,0.00,,---,0.00,VWS V13.01,2013-04-10 22:46:00,
2013-04-10 18:50:00,62.6,47.6,29.12,South,180,0.9,0.9,58,0.00,,---,0.00,VWS V13.01,2013-04-10 22:50:00,
2013-04-10 18:52:00,62.6,47.6,29.12,SE,135,1.6,1.6,58,0.00,,---,0.00,VWS V13.01,2013-04-10 22:52:00,
2013-04-10 18:55:00,62.6,47.6,29.12,SE,135,0.0,0.0,58,0.00,,---,0.00,VWS V13.01,2013-04-10 22:55:00,
2013-04-10 18:56:00,62.6,47.6,29.12,SSE,158,0.0,0.0,58,0.00,,---,0.00,VWS V13.01,2013-04-10 22:56:00,
2013-04-10 18:57:00,61.7,47.2,29.12,SW,225,3.6,3.6,59,0.00,,---,0.00,VWS V13.01,2013-04-10 22:57:00,
2013-04-10 19:00:00,61.5,47.1,29.12,SSW,202,2.7,2.7,59,0.00,,---,0.00,VWS V13.01,2013-04-10 23:00:00,
2013-04-10 19:01:00,61.5,47.1,29.12,SSE,158,2.7,2.7,59,0.00,,---,0.00,VWS V13.01,2013-04-10 23:01:00,
2013-04-10 19:02:00,61.5,47.1,29.12,SSE,158,2.7,2.7,59,0.00,,---,0.00,VWS V13.01,2013-04-10 23:02:00,
2013-04-10 19:05:00,61.2,46.7,29.12,WSW,248,0.0,1.3,59,0.00,,---,0.00,VWS V13.01,2013-04-10 23:05:00,
2013-04-10 19:06:00,61.2,46.7,29.12,WSW,248,0.0,1.3,59,0.00,,---,0.00,VWS V13.01,2013-04-10 23:06:00,
2013-04-10 19:07:00,61.2,46.7,29.12,West,270,6.0,6.0,59,0.00,,---,0.00,VWS V13.01,2013-04-10 23:07:00,
2013-04-10 19:11:00,61.2,46.7,29.12,SSE,158,5.6,5.6,59,0.00,,---,0.00,VWS V13.01,2013-04-10 23:11:00,
2013-04-10 19:12:00,61.2,46.7,29.12,SE,135,4.9,5.6,59,0.00,,---,0.00,VWS V13.01,2013-04-10 23:12:00,
2013-04-10 19:13:00,61.2,46.7,29.12,SSW,202,0.0,2.2,59,0.08,,---,0.08,VWS V13.01,2013-04-10 23:13:00,
2013-04-10 19:16:00,61.2,46.7,29.12,SSW,202,1.6,1.6,59,0.12,,---,0.12,VWS V13.01,2013-04-10 23:16:00,
2013-04-10 19:17:00,61.2,46.7,29.12,SSW,202,0.0,2.0,59,0.12,,---,0.12,VWS V13.01,2013-04-10 23:17:00,
2013-04-10 19:18:00,61.2,46.7,29.12,SSW,202,0.0,0.0,59,0.12,,---,0.12,VWS V13.01,2013-04-10 23:18:00,
2013-04-10 19:21:00,61.2,46.7,29.12,WNW,292,2.7,2.7,59,0.12,,---,0.12,VWS V13.01,2013-04-10 23:21:00,
2013-04-10 19:22:00,61.2,46.7,29.12,West,270,0.0,2.7,59,0.12,,---,0.12,VWS V13.01,2013-04-10 23:22:00,
2013-04-10 19:23:00,61.2,46.7,29.12,West,270,0.0,0.0,59,0.12,,---,0.12,VWS V13.01,2013-04-10 23:23:00,
2013-04-10 19:24:00,61.2,46.7,29.12,NW,315,0.0,0.0,59,0.12,,---,0.12,VWS V13.01,2013-04-10 23:24:00,
2013-04-10 19:26:00,61.2,46.7,29.23,SE,135,0.0,0.0,59,0.16,,---,0.16,VWS V13.01,2013-04-10 23:26:00,
2013-04-10 19:28:00,61.2,46.7,29.23,SE,135,0.0,0.0,59,0.16,,---,0.16,VWS V13.01,2013-04-10 23:28:00,
2013-04-10 19:29:00,58.5,49.1,29.23,SE,135,0.0,0.0,71,0.16,,---,0.16,VWS V13.01,2013-04-10 23:29:00,
2013-04-10 19:31:00,58.5,49.1,29.23,SE,135,0.0,0.0,71,0.16,,---,0.16,VWS V13.01,2013-04-10 23:31:00,
2013-04-10 19:33:00,58.5,49.1,29.23,SSE,158,0.9,0.9,71,0.16,,---,0.16,VWS V13.01,2013-04-10 23:33:00,
2013-04-10 19:34:00,58.5,49.1,29.23,SSE,158,0.0,0.9,71,0.16,,---,0.16,VWS V13.01,2013-04-10 23:34:00,
2013-04-10 19:37:00,58.5,49.1,29.23,SSW,202,0.9,0.9,71,0.20,,---,0.20,VWS V13.01,2013-04-10 23:37:00,
2013-04-10 19:38:00,58.5,49.1,29.23,South,180,1.3,1.3,71,0.20,,---,0.20,VWS V13.01,2013-04-10 23:38:00,
2013-04-10 19:39:00,58.5,49.1,29.23,SSE,158,2.2,2.2,71,0.20,,---,0.20,VWS V13.01,2013-04-10 23:39:00,
2013-04-10 19:42:00,58.5,49.1,29.23,SSE,158,0.0,0.0,71,0.20,,---,0.20,VWS V13.01,2013-04-10 23:42:00,
2013-04-10 19:43:00,58.5,49.1,29.23,South,180,0.0,0.0,71,0.20,,---,0.20,VWS V13.01,2013-04-10 23:43:00,
2013-04-10 19:44:00,58.5,49.1,29.23,SSE,158,1.3,1.3,71,0.20,,---,0.20,VWS V13.01,2013-04-10 23:44:00,
2013-04-10 19:47:00,57.6,49.3,29.23,SSE,158,1.6,1.6,74,0.24,,---,0.24,VWS V13.01,2013-04-10 23:47:00,
2013-04-10 19:49:00,57.6,49.3,29.23,SE,135,0.0,1.6,74,0.24,,---,0.24,VWS V13.01,2013-04-10 23:49:00,
2013-04-10 19:52:00,57.6,49.3,29.14,SE,135,1.3,1.3,74,0.24,,---,0.24,VWS V13.01,2013-04-10 23:52:00,
2013-04-10 19:54:00,57.6,49.3,29.14,SE,135,1.1,1.1,74,0.24,,---,0.24,VWS V13.01,2013-04-10 23:54:00,
2013-04-10 19:57:00,57.2,49.7,29.14,SSE,158,2.0,2.0,76,0.24,,---,0.24,VWS V13.01,2013-04-10 23:57:00,
2013-04-10 19:59:00,57.2,49.7,29.14,South,180,2.2,2.2,76,0.24,,---,0.24,VWS V13.01,2013-04-10 23:59:00,
2013-04-10 20:00:00,57.2,49.7,29.14,South,180,2.2,2.2,76,0.24,,---,0.24,VWS V13.01,2013-04-11 00:00:00,
2013-04-10 20:03:00,56.7,49.2,29.14,South,180,0.0,2.9,76,0.24,,---,0.24,VWS V13.01,2013-04-11 00:03:00,
2013-04-10 20:04:00,56.7,49.2,29.14,South,180,0.0,0.0,76,0.24,,---,0.24,VWS V13.01,2013-04-11 00:04:00,
2013-04-10 20:05:00,56.7,49.2,29.14,ESE,112,2.0,2.0,76,0.24,,---,0.24,VWS V13.01,2013-04-11 00:05:00,
2013-04-10 20:08:00,56.7,49.5,29.14,South,180,0.0,0.0,77,0.24,,---,0.24,VWS V13.01,2013-04-11 00:08:00,
2013-04-10 20:09:00,56.5,49.4,29.14,SSE,158,2.7,2.7,77,0.24,,---,0.24,VWS V13.01,2013-04-11 00:09:00,
2013-04-10 20:10:00,56.5,49.4,29.14,SSE,158,2.7,2.7,77,0.24,,---,0.24,VWS V13.01,2013-04-11 00:10:00,
2013-04-10 20:14:00,56.5,49.4,29.14,SSE,158,1.3,1.6,77,0.16,,---,0.24,VWS V13.01,2013-04-11 00:14:00,
2013-04-10 20:15:00,56.5,49.4,29.14,SSE,158,1.3,1.6,77,0.12,,---,0.24,VWS V13.01,2013-04-11 00:15:00,
2013-04-10 20:16:00,56.5,49.4,29.14,SSE,158,1.1,1.3,77,0.12,,---,0.24,VWS V13.01,2013-04-11 00:16:00,
2013-04-10 20:20:00,56.5,49.4,29.14,SSE,158,0.0,0.0,77,0.12,,---,0.24,VWS V13.01,2013-04-11 00:20:00,
2013-04-10 20:22:00,56.1,49.7,29.14,SSE,158,0.0,1.3,79,0.12,,---,0.24,VWS V13.01,2013-04-11 00:22:00,
2013-04-10 20:25:00,56.1,49.7,29.14,SSE,158,0.0,0.0,79,0.12,,---,0.24,VWS V13.01,2013-04-11 00:25:00,
2013-04-10 20:28:00,56.1,49.7,29.14,SSE,158,2.0,2.5,79,0.08,,---,0.24,VWS V13.01,2013-04-11 00:28:00,
2013-04-10 20:30:00,56.1,49.7,29.14,SSE,158,2.7,2.7,79,0.08,,---,0.24,VWS V13.01,2013-04-11 00:30:00,
2013-04-10 20:33:00,56.1,49.7,29.14,SSE,158,2.5,4.0,79,0.08,,---,0.24,VWS V13.01,2013-04-11 00:33:00,
2013-04-10 20:34:00,56.1,49.7,29.14,South,180,0.0,2.5,79,0.08,,---,0.24,VWS V13.01,2013-04-11 00:34:00,
2013-04-10 20:36:00,55.8,49.4,29.14,SW,225,0.0,0.0,79,0.08,,---,0.24,VWS V13.01,2013-04-11 00:36:00,
2013-04-10 20:38:00,55.8,49.4,29.14,SSW,202,0.0,0.0,79,0.04,,---,0.24,VWS V13.01,2013-04-11 00:38:00,
2013-04-10 20:40:00,55.8,49.4,29.14,SSW,202,0.0,0.0,79,0.04,,---,0.24,VWS V13.01,2013-04-11 00:40:00,
2013-04-10 20:48:00,55.8,49.4,29.14,SSE,158,0.0,0.0,79,0.00,,---,0.24,VWS V13.01,2013-04-11 00:48:00,
2013-04-10 20:53:00,55.2,49.5,29.12,SW,225,0.0,0.0,81,0.00,,---,0.24,VWS V13.01,2013-04-11 00:53:00,
2013-04-10 20:54:00,55.2,49.5,29.12,WSW,248,0.0,0.0,81,0.00,,---,0.24,VWS V13.01,2013-04-11 00:54:00,
2013-04-10 20:56:00,55.2,49.5,29.12,SSE,158,0.0,0.0,81,0.00,,---,0.24,VWS V13.01,2013-04-11 00:56:00,
2013-04-10 20:58:00,55.2,49.5,29.12,SSE,158,1.3,1.3,81,0.00,,---,0.24,VWS V13.01,2013-04-11 00:58:00,
2013-04-10 21:00:00,55.2,49.5,29.12,SSE,158,0.9,0.9,81,0.00,,---,0.24,VWS V13.01,2013-04-11 01:00:00,
2013-04-10 21:02:00,55.0,49.3,29.12,South,180,0.0,0.0,81,0.00,,---,0.24,VWS V13.01,2013-04-11 01:02:00,
2013-04-10 21:09:00,55.0,49.3,29.12,South,180,0.0,0.0,81,0.00,,---,0.24,VWS V13.01,2013-04-11 01:09:00,
2013-04-10 21:15:00,54.7,49.3,29.12,SSE,158,0.0,0.0,82,0.00,,---,0.24,VWS V13.01,2013-04-11 01:15:00,
2013-04-10 21:16:00,54.7,49.3,29.12,SSE,158,0.0,0.0,82,0.00,,---,0.24,VWS V13.01,2013-04-11 01:16:00,
2013-04-10 21:19:00,54.7,49.3,29.12,SSE,158,0.0,0.0,82,0.00,,---,0.24,VWS V13.01,2013-04-11 01:19:00,
2013-04-10 21:21:00,54.7,49.3,29.12,SSE,158,0.0,0.0,82,0.00,,---,0.24,VWS V13.01,2013-04-11 01:21:00,
2013-04-10 21:22:00,54.7,49.3,29.12,SSE,158,0.0,0.0,82,0.00,,---,0.24,VWS V13.01,2013-04-11 01:22:00,
2013-04-10 21:24:00,54.7,49.3,29.12,South,180,0.0,0.0,82,0.00,,---,0.24,VWS V13.01,2013-04-11 01:24:00,
2013-04-10 21:27:00,54.7,49.6,29.12,South,180,0.0,0.0,83,0.00,,---,0.24,VWS V13.01,2013-04-11 01:27:00,
2013-04-10 21:28:00,54.7,49.6,29.12,SSE,158,2.9,2.9,83,0.00,,---,0.24,VWS V13.01,2013-04-11 01:28:00,
2013-04-10 21:30:00,54.7,49.6,29.12,SSE,158,3.6,3.6,83,0.00,,---,0.24,VWS V13.01,2013-04-11 01:30:00,
2013-04-10 21:32:00,54.7,49.6,29.12,SSW,202,0.0,0.0,83,0.00,,---,0.24,VWS V13.01,2013-04-11 01:32:00,
2013-04-10 21:33:00,54.7,49.6,29.12,SSW,202,0.0,0.0,83,0.00,,---,0.24,VWS V13.01,2013-04-11 01:33:00,
2013-04-10 21:35:00,54.7,49.6,29.12,SSW,202,0.0,0.0,83,0.00,,---,0.24,VWS V13.01,2013-04-11 01:35:00,
2013-04-10 21:38:00,54.5,49.5,29.12,South,180,1.6,1.6,83,0.00,,---,0.24,VWS V13.01,2013-04-11 01:38:00,
2013-04-10 21:40:00,54.5,49.5,29.12,South,180,3.6,3.6,83,0.00,,---,0.24,VWS V13.01,2013-04-11 01:40:00,
2013-04-10 21:43:00,54.7,49.6,29.12,SSE,158,3.1,3.1,83,0.00,,---,0.24,VWS V13.01,2013-04-11 01:43:00,
2013-04-10 21:45:00,54.7,49.6,29.12,SSE,158,1.6,1.6,83,0.00,,---,0.24,VWS V13.01,2013-04-11 01:45:00,
2013-04-10 21:48:00,54.7,49.6,29.12,NW,315,0.0,0.0,83,0.00,,---,0.24,VWS V13.01,2013-04-11 01:48:00,
2013-04-10 21:50:00,54.7,49.6,29.12,NW,315,0.0,0.9,83,0.00,,---,0.24,VWS V13.01,2013-04-11 01:50:00,
2013-04-10 21:53:00,54.7,49.6,29.12,WSW,248,0.0,0.0,83,0.00,,---,0.24,VWS V13.01,2013-04-11 01:53:00,
2013-04-10 21:55:00,54.7,49.6,29.12,WSW,248,0.0,0.0,83,0.00,,---,0.24,VWS V13.01,2013-04-11 01:55:00,
2013-04-10 21:58:00,54.7,49.6,29.12,North,0,0.0,0.0,83,0.00,,---,0.24,VWS V13.01,2013-04-11 01:58:00,
2013-04-10 21:59:00,54.7,49.6,29.12,North,0,0.0,0.0,83,0.00,,---,0.24,VWS V13.01,2013-04-11 01:59:00,
2013-04-10 22:00:00,54.7,49.6,29.12,SE,135,0.0,0.0,83,0.00,,---,0.24,VWS V13.01,2013-04-11 02:00:00,
2013-04-10 22:03:00,54.7,49.6,29.12,SE,135,0.0,0.0,83,0.00,,---,0.24,VWS V13.01,2013-04-11 02:03:00,
2013-04-10 22:04:00,54.7,49.6,29.14,SE,135,0.0,0.0,83,0.00,,---,0.24,VWS V13.01,2013-04-11 02:04:00,
2013-04-10 22:05:00,54.7,49.6,29.14,SSE,158,0.0,0.0,83,0.00,,---,0.24,VWS V13.01,2013-04-11 02:05:00,
2013-04-10 22:08:00,54.5,49.5,29.14,SSE,158,0.0,0.0,83,0.00,,---,0.24,VWS V13.01,2013-04-11 02:08:00,
2013-04-10 22:09:00,54.5,49.5,29.14,SSE,158,0.0,0.0,83,0.00,,---,0.24,VWS V13.01,2013-04-11 02:09:00,
2013-04-10 22:11:00,54.5,49.5,29.14,SSE,158,0.0,0.0,83,0.00,,---,0.24,VWS V13.01,2013-04-11 02:11:00,
2013-04-10 22:13:00,54.5,49.8,29.14,SSE,158,0.0,0.0,84,0.00,,---,0.24,VWS V13.01,2013-04-11 02:13:00,
2013-04-10 22:14:00,54.5,49.8,29.14,SSE,158,0.0,0.0,84,0.00,,---,0.24,VWS V13.01,2013-04-11 02:14:00,
2013-04-10 22:16:00,54.5,49.8,29.14,SSE,158,0.0,0.0,84,0.00,,---,0.24,VWS V13.01,2013-04-11 02:16:00,
2013-04-10 22:18:00,54.5,49.8,29.14,SSE,158,0.0,0.0,84,0.00,,---,0.24,VWS V13.01,2013-04-11 02:18:00,
2013-04-10 22:19:00,54.5,49.8,29.14,SSE,158,0.0,0.0,84,0.00,,---,0.24,VWS V13.01,2013-04-11 02:19:00,
2013-04-10 22:20:00,54.5,49.8,29.14,SSE,158,0.0,0.0,84,0.00,,---,0.24,VWS V13.01,2013-04-11 02:20:00,
2013-04-10 22:21:00,54.5,49.8,29.14,SSW,202,0.0,0.0,84,0.00,,---,0.24,VWS V13.01,2013-04-11 02:21:00,
2013-04-10 22:23:00,54.5,49.8,29.14,SSW,202,0.0,0.0,84,0.00,,---,0.24,VWS V13.01,2013-04-11 02:23:00,
2013-04-10 22:24:00,54.5,49.8,29.14,SW,225,0.0,0.0,84,0.00,,---,0.24,VWS V13.01,2013-04-11 02:24:00,
2013-04-10 22:25:00,54.5,49.8,29.17,SW,225,0.0,0.0,84,0.00,,---,0.24,VWS V13.01,2013-04-11 02:25:00,
2013-04-10 22:27:00,54.5,49.8,29.17,East,90,0.0,0.0,84,0.00,,---,0.24,VWS V13.01,2013-04-11 02:27:00,
2013-04-10 22:28:00,54.5,49.8,29.17,East,90,0.0,0.0,84,0.00,,---,0.24,VWS V13.01,2013-04-11 02:28:00,
2013-04-10 22:29:00,54.5,49.8,29.17,East,90,0.0,0.0,84,0.00,,---,0.24,VWS V13.01,2013-04-11 02:29:00,
2013-04-10 22:30:00,54.5,49.8,29.17,SSW,202,0.0,0.0,84,0.00,,---,0.24,VWS V13.01,2013-04-11 02:30:00,
2013-04-10 22:32:00,54.5,50.1,29.17,SW,225,0.0,0.0,85,0.00,,---,0.24,VWS V13.01,2013-04-11 02:32:00,
2013-04-10 22:33:00,54.5,50.1,29.17,South,180,0.0,0.0,85,0.00,,---,0.24,VWS V13.01,2013-04-11 02:33:00,
2013-04-10 22:34:00,54.5,50.1,29.17,South,180,0.0,0.0,85,0.00,,---,0.24,VWS V13.01,2013-04-11 02:34:00,
2013-04-10 22:35:00,54.5,50.1,29.17,South,180,0.0,0.0,85,0.00,,---,0.24,VWS V13.01,2013-04-11 02:35:00,
2013-04-10 22:37:00,54.5,50.1,29.17,South,180,0.0,0.0,85,0.00,,---,0.24,VWS V13.01,2013-04-11 02:37:00,
2013-04-10 22:39:00,54.5,50.1,29.17,South,180,0.0,0.0,85,0.00,,---,0.24,VWS V13.01,2013-04-11 02:39:00,
2013-04-10 22:40:00,54.5,50.1,29.17,South,180,0.0,0.0,85,0.00,,---,0.24,VWS V13.01,2013-04-11 02:40:00,
2013-04-10 22:42:00,54.5,50.1,29.17,SSE,158,0.0,0.0,85,0.00,,---,0.24,VWS V13.01,2013-04-11 02:42:00,
2013-04-10 22:44:00,54.5,50.1,29.17,SE,135,2.0,2.0,85,0.05,,---,0.29,VWS V13.01,2013-04-11 02:44:00,
2013-04-10 22:45:00,54.5,50.1,29.17,SSE,158,0.0,1.3,85,0.05,,---,0.29,VWS V13.01,2013-04-11 02:45:00,
2013-04-10 22:47:00,54.5,50.1,29.17,SSE,158,1.6,1.6,85,0.05,,---,0.29,VWS V13.01,2013-04-11 02:47:00,
2013-04-10 22:49:00,54.5,50.1,29.17,South,180,0.9,1.6,85,0.05,,---,0.29,VWS V13.01,2013-04-11 02:49:00,
2013-04-10 22:51:00,54.5,50.1,29.17,SSE,158,2.0,2.0,85,0.05,,---,0.29,VWS V13.01,2013-04-11 02:51:00,
2013-04-10 22:53:00,54.7,50.3,29.17,SSE,158,2.0,2.0,85,0.05,,---,0.29,VWS V13.01,2013-04-11 02:53:00,
2013-04-10 22:54:00,54.5,50.1,29.14,SSE,158,2.0,2.0,85,0.05,,---,0.29,VWS V13.01,2013-04-11 02:54:00,
2013-04-10 22:56:00,54.5,50.1,29.14,SSE,158,0.0,0.0,85,0.05,,---,0.29,VWS V13.01,2013-04-11 02:56:00,
2013-04-10 22:57:00,54.5,50.1,29.14,South,180,0.0,0.0,85,0.05,,---,0.29,VWS V13.01,2013-04-11 02:57:00,
2013-04-10 22:59:00,54.5,50.1,29.14,South,180,0.0,0.0,85,0.05,,---,0.29,VWS V13.01,2013-04-11 02:59:00,
2013-04-10 23:01:00,54.5,50.1,29.14,South,180,0.0,0.0,85,0.05,,---,0.29,VWS V13.01,2013-04-11 03:01:00,
2013-04-10 23:02:00,54.5,50.1,29.14,SSW,202,0.0,0.0,85,0.05,,---,0.29,VWS V13.01,2013-04-11 03:02:00,
2013-04-10 23:04:00,54.5,50.1,29.14,SSW,202,0.0,0.0,85,0.05,,---,0.29,VWS V13.01,2013-04-11 03:04:00,
2013-04-10 23:06:00,54.5,50.1,29.14,SSW,202,0.0,0.0,85,0.05,,---,0.29,VWS V13.01,2013-04-11 03:06:00,
2013-04-10 23:08:00,54.5,50.1,29.14,South,180,0.0,0.0,85,0.05,,---,0.29,VWS V13.01,2013-04-11 03:08:00,
2013-04-10 23:09:00,54.5,50.1,29.17,South,180,0.0,0.0,85,0.05,,---,0.29,VWS V13.01,2013-04-11 03:09:00,
2013-04-10 23:11:00,54.5,50.1,29.17,SSW,202,0.0,0.0,85,0.05,,---,0.29,VWS V13.01,2013-04-11 03:11:00,
2013-04-10 23:13:00,54.5,50.1,29.17,SW,225,0.0,0.0,85,0.05,,---,0.29,VWS V13.01,2013-04-11 03:13:00,
2013-04-10 23:14:00,54.5,50.1,29.17,South,180,0.9,0.9,85,0.05,,---,0.29,VWS V13.01,2013-04-11 03:14:00,
2013-04-10 23:16:00,54.5,50.1,29.17,South,180,0.0,0.9,85,0.05,,---,0.29,VWS V13.01,2013-04-11 03:16:00,
2013-04-10 23:18:00,54.5,50.1,29.17,WSW,248,0.0,0.0,85,0.05,,---,0.29,VWS V13.01,2013-04-11 03:18:00,
2013-04-10 23:19:00,54.5,50.1,29.17,South,180,1.6,1.6,85,0.05,,---,0.29,VWS V13.01,2013-04-11 03:19:00,
2013-04-10 23:21:00,54.5,50.1,29.17,South,180,0.0,0.0,85,0.05,,---,0.29,VWS V13.01,2013-04-11 03:21:00,
2013-04-10 23:23:00,54.5,50.1,29.14,South,180,0.0,0.0,85,0.05,,---,0.29,VWS V13.01,2013-04-11 03:23:00,
2013-04-10 23:24:00,54.7,50.6,29.14,South,180,0.0,0.0,86,0.05,,---,0.29,VWS V13.01,2013-04-11 03:24:00,
2013-04-10 23:25:00,54.7,50.6,29.14,South,180,0.0,0.0,86,0.05,,---,0.29,VWS V13.01,2013-04-11 03:25:00,
2013-04-10 23:27:00,54.7,50.6,29.14,South,180,0.0,0.0,86,0.05,,---,0.29,VWS V13.01,2013-04-11 03:27:00,
2013-04-10 23:28:00,54.7,50.6,29.14,South,180,0.0,0.0,86,0.05,,---,0.29,VWS V13.01,2013-04-11 03:28:00,
2013-04-10 23:29:00,54.7,50.9,29.14,SSW,202,0.0,0.0,87,0.05,,---,0.29,VWS V13.01,2013-04-11 03:29:00,
2013-04-10 23:30:00,54.7,50.9,29.14,South,180,0.0,0.0,87,0.05,,---,0.29,VWS V13.01,2013-04-11 03:30:00,
2013-04-10 23:32:00,54.7,50.9,29.14,South,180,0.0,0.0,87,0.05,,---,0.29,VWS V13.01,2013-04-11 03:32:00,
2013-04-10 23:33:00,54.7,50.9,29.14,South,180,0.0,0.0,87,0.05,,---,0.29,VWS V13.01,2013-04-11 03:33:00,
2013-04-10 23:34:00,54.7,50.9,29.14,SSW,202,0.0,0.0,87,0.05,,---,0.29,VWS V13.01,2013-04-11 03:34:00,
2013-04-10 23:35:00,54.7,50.9,29.14,SSW,202,0.0,0.0,87,0.05,,---,0.29,VWS V13.01,2013-04-11 03:35:00,
2013-04-10 23:37:00,54.7,50.9,29.14,WSW,248,0.0,0.0,87,0.05,,---,0.29,VWS V13.01,2013-04-11 03:37:00,
2013-04-10 23:38:00,54.7,50.9,29.14,WSW,248,0.0,0.0,87,0.05,,---,0.29,VWS V13.01,2013-04-11 03:38:00,
2013-04-10 23:39:00,54.7,50.9,29.14,SSW,202,1.1,1.1,87,0.05,,---,0.29,VWS V13.01,2013-04-11 03:39:00,
2013-04-10 23:40:00,54.7,50.9,29.14,SSW,202,1.1,1.1,87,0.05,,---,0.29,VWS V13.01,2013-04-11 03:40:00,
2013-04-10 23:42:00,54.7,50.9,29.14,South,180,0.0,1.1,87,0.05,,---,0.29,VWS V13.01,2013-04-11 03:42:00,
2013-04-10 23:43:00,54.7,50.9,29.14,SSW,202,1.1,1.1,87,0.05,,---,0.29,VWS V13.01,2013-04-11 03:43:00,
2013-04-10 23:44:00,54.7,50.9,29.14,South,180,0.0,1.1,87,0.05,,---,0.29,VWS V13.01,2013-04-11 03:44:00,
2013-04-10 23:45:00,54.7,50.9,29.14,South,180,0.0,0.0,87,0.00,,---,0.29,VWS V13.01,2013-04-11 03:45:00,
2013-04-10 23:47:00,54.7,50.9,29.14,SSW,202,2.9,2.9,87,0.00,,---,0.29,VWS V13.01,2013-04-11 03:47:00,
2013-04-10 23:48:00,54.7,50.9,29.14,SSE,158,1.3,1.3,87,0.00,,---,0.29,VWS V13.01,2013-04-11 03:48:00,
2013-04-10 23:50:00,54.7,50.9,29.14,South,180,1.6,1.6,87,0.00,,---,0.29,VWS V13.01,2013-04-11 03:50:00,
2013-04-10 23:52:00,54.7,50.9,29.14,SSW,202,0.0,2.0,87,0.00,,---,0.29,VWS V13.01,2013-04-11 03:52:00,
2013-04-10 23:53:00,54.7,50.9,29.14,SE,135,0.0,0.0,87,0.00,,---,0.29,VWS V13.01,2013-04-11 03:53:00,
2013-04-10 23:55:00,54.7,50.9,29.14,SSE,158,1.3,1.3,87,0.00,,---,0.29,VWS V13.01,2013-04-11 03:55:00,
2013-04-10 23:58:00,54.7,50.9,29.14,South,180,2.5,2.5,87,0.00,,---,0.29,VWS V13.01,2013-04-11 03:58:00,
2013-04-10 23:59:00,54.7,50.9,29.14,SSW,202,0.0,0.0,87,0.00,,---,0.29,VWS V13.01,2013-04-11 03:59:00,